Time,TemperatureF,DewpointF,PressureIn,WindDirection,WindDirectionDegrees,WindSpeedMPH,WindSpeedGustMPH,Humidity,HourlyPrecipIn,Conditions,Clouds,dailyrainin,SoftwareType,DateUTC
2013-01-30 00:00:00,63.0,56.7,29.76,South,180,24.0,24.0,80,0.00,,SCT100,0.00,VWS V14.00,2013-01-30 05:00:00,
2013-01-30 00:01:00,63.0,56.7,29.76,SW,225,18.0,24.0,80,0.00,,SCT100,0.00,VWS V14.00,2013-01-30 05:01:00,
2013-01-30 00:02:00,63.0,56.7,29.76,South,180,14.0,24.0,80,0.00,,CLR,0.00,VWS V14.00,2013-01-30 05:02:00,
2013-01-30 00:03:00,63.0,56.7,29.75,South,180,15.0,24.0,80,0.00,,CLR,0.00,VWS V14.00,2013-01-30 05:03:00,
2013-01-30 00:06:00,63.0,56.7,29.75,South,180,15.0,33.0,80,0.00,,CLR,0.00,VWS V14.00,2013-01-30 05:06:00,
2013-01-30 00:07:00,63.0,56.7,29.75,SSW,202,20.0,33.0,80,0.00,,CLR,0.00,VWS V14.00,2013-01-30 05:07:00,
2013-01-30 00:08:00,63.0,56.7,29.75,South,180,20.0,37.0,80,0.00,,CLR,0.00,VWS V14.00,2013-01-30 05:08:00,
2013-01-30 00:09:00,63.0,56.7,29.75,SW,225,24.0,36.0,80,0.00,,CLR,0.00,VWS V14.00,2013-01-30 05:09:00,
2013-01-30 00:12:00,63.0,56.7,29.75,SSW,202,31.0,36.0,80,0.00,,CLR,0.00,VWS V14.00,2013-01-30 05:12:00,
2013-01-30 00:13:00,63.0,56.7,29.75,South,180,28.0,36.0,80,0.00,,CLR,0.00,VWS V14.00,2013-01-30 05:13:00,
2013-01-30 00:14:00,63.0,56.7,29.74,SSW,202,24.0,26.0,80,0.00,,CLR,0.00,VWS V14.00,2013-01-30 05:14:00,
2013-01-30 00:17:00,63.0,56.7,29.74,SSW,202,18.0,31.0,80,0.00,,CLR,0.00,VWS V14.00,2013-01-30 05:17:00,
2013-01-30 00:18:00,63.0,56.7,29.74,South,180,16.0,16.0,80,0.00,,CLR,0.00,VWS V14.00,2013-01-30 05:18:00,
2013-01-30 00:20:00,63.0,56.7,29.74,South,180,20.0,29.0,80,0.00,,CLR,0.00,VWS V14.00,2013-01-30 05:20:00,
2013-01-30 00:22:00,63.0,57.1,29.74,South,180,23.0,29.0,81,0.00,,CLR,0.00,VWS V14.00,2013-01-30 05:22:00,
2013-01-30 00:23:00,63.0,57.1,29.74,SSW,202,22.0,25.0,81,0.00,,CLR,0.00,VWS V14.00,2013-01-30 05:23:00,
2013-01-30 00:24:00,63.0,57.1,29.74,South,180,21.0,25.0,81,0.00,,CLR,0.00,VWS V14.00,2013-01-30 05:24:00,
2013-01-30 00:25:00,63.0,56.7,29.74,SSW,202,15.0,29.0,80,0.00,,CLR,0.00,VWS V14.00,2013-01-30 05:25:00,
2013-01-30 00:28:00,63.0,57.1,29.74,South,180,27.0,27.0,81,0.00,,CLR,0.00,VWS V14.00,2013-01-30 05:28:00,
2013-01-30 00:29:00,63.0,57.1,29.74,SSW,202,12.0,28.0,81,0.00,,CLR,0.00,VWS V14.00,2013-01-30 05:29:00,
2013-01-30 00:32:00,63.0,57.1,29.74,South,180,11.0,34.0,81,0.00,,CLR,0.00,VWS V14.00,2013-01-30 05:32:00,
2013-01-30 00:34:00,63.0,56.7,29.73,SSW,202,16.0,24.0,80,0.00,,CLR,0.00,VWS V14.00,2013-01-30 05:34:00,
2013-01-30 00:36:00,63.0,57.1,29.73,South,180,10.0,28.0,81,0.00,,CLR,0.00,VWS V14.00,2013-01-30 05:36:00,
2013-01-30 00:38:00,63.0,57.1,29.73,South,180,12.0,20.0,81,0.00,,CLR,0.00,VWS V14.00,2013-01-30 05:38:00,
2013-01-30 00:40:00,64.0,58.1,29.73,SW,225,20.0,34.0,81,0.00,,CLR,0.00,VWS V14.00,2013-01-30 05:40:00,
2013-01-30 00:42:00,63.0,56.7,29.73,South,180,15.0,34.0,80,0.00,,CLR,0.00,VWS V14.00,2013-01-30 05:42:00,
2013-01-30 00:43:00,63.0,56.7,29.71,South,180,15.0,23.0,80,0.00,,CLR,0.00,VWS V14.00,2013-01-30 05:43:00,
2013-01-30 00:45:00,63.0,57.1,29.71,SSW,202,13.0,28.0,81,0.00,,CLR,0.00,VWS V14.00,2013-01-30 05:45:00,
2013-01-30 00:46:00,63.0,57.1,29.71,SSW,202,20.0,28.0,81,0.00,,CLR,0.00,VWS V14.00,2013-01-30 05:46:00,
2013-01-30 00:47:00,63.0,57.1,29.71,South,180,23.0,28.0,81,0.00,,CLR,0.00,VWS V14.00,2013-01-30 05:47:00,
2013-01-30 00:49:00,64.0,58.4,29.71,SSW,202,15.0,30.0,82,0.00,,CLR,0.00,VWS V14.00,2013-01-30 05:49:00,
2013-01-30 00:51:00,64.0,58.4,29.71,SSW,202,28.0,30.0,82,0.00,,CLR,0.00,VWS V14.00,2013-01-30 05:51:00,
2013-01-30 00:53:00,64.0,58.1,29.71,South,180,21.0,24.0,81,0.00,,CLR,0.00,VWS V14.00,2013-01-30 05:53:00,
2013-01-30 00:55:00,64.0,58.1,29.71,South,180,18.0,24.0,81,0.00,,CLR,0.00,VWS V14.00,2013-01-30 05:55:00,
2013-01-30 00:56:00,64.0,58.1,29.71,South,180,18.0,27.0,81,0.00,,CLR,0.00,VWS V14.00,2013-01-30 05:56:00,
2013-01-30 00:57:00,64.0,57.7,29.71,South,180,23.0,33.0,81,0.00,,CLR,0.00,VWS V14.00,2013-01-30 05:57:00,
2013-01-30 00:58:00,64.0,58.1,29.71,South,180,15.0,21.0,81,0.00,,CLR,0.00,VWS V14.00,2013-01-30 05:58:00,
2013-01-30 01:00:00,64.0,58.1,29.71,SSW,202,19.0,29.0,81,0.00,,CLR,0.00,VWS V14.00,2013-01-30 06:00:00,
2013-01-30 01:01:00,64.0,58.1,29.71,South,180,23.0,29.0,81,0.00,,CLR,0.00,VWS V14.00,2013-01-30 06:01:00,
2013-01-30 01:02:00,64.0,58.1,29.71,SSW,202,13.0,29.0,81,0.00,,CLR,0.00,VWS V14.00,2013-01-30 06:02:00,
2013-01-30 01:04:00,64.0,58.1,29.71,South,180,15.0,33.0,81,0.00,,CLR,0.00,VWS V14.00,2013-01-30 06:04:00,
2013-01-30 01:06:00,64.0,57.7,29.71,South,180,15.0,33.0,80,0.00,,CLR,0.00,VWS V14.00,2013-01-30 06:06:00,
2013-01-30 01:07:00,64.0,57.7,29.71,South,180,11.0,33.0,80,0.00,,CLR,0.00,VWS V14.00,2013-01-30 06:07:00,
2013-01-30 01:08:00,64.0,57.7,29.71,SW,225,16.0,20.0,80,0.00,,CLR,0.00,VWS V14.00,2013-01-30 06:08:00,
2013-01-30 01:10:00,64.0,58.1,29.71,South,180,13.0,23.0,81,0.00,,CLR,0.00,VWS V14.00,2013-01-30 06:10:00,
2013-01-30 01:12:00,64.0,58.1,29.71,South,180,13.0,26.0,81,0.00,,CLR,0.00,VWS V14.00,2013-01-30 06:12:00,
2013-01-30 01:13:00,64.0,58.1,29.71,SSW,202,21.0,27.0,81,0.00,,CLR,0.00,VWS V14.00,2013-01-30 06:13:00,
2013-01-30 01:14:00,64.0,58.1,29.70,South,180,16.0,29.0,81,0.00,,CLR,0.00,VWS V14.00,2013-01-30 06:14:00,
2013-01-30 01:16:00,64.0,57.7,29.70,SSW,202,21.0,33.0,80,0.00,,CLR,0.00,VWS V14.00,2013-01-30 06:16:00,
2013-01-30 01:18:00,64.0,58.1,29.70,SSW,202,18.0,26.0,81,0.00,,CLR,0.00,VWS V14.00,2013-01-30 06:18:00,
2013-01-30 01:19:00,64.0,58.1,29.70,SW,225,28.0,28.0,81,0.00,,CLR,0.00,VWS V14.00,2013-01-30 06:19:00,
2013-01-30 01:20:00,64.0,57.7,29.70,SW,225,20.0,28.0,80,0.00,,CLR,0.00,VWS V14.00,2013-01-30 06:20:00,
2013-01-30 01:21:00,64.0,57.7,29.70,SW,225,28.0,38.0,80,0.00,,CLR,0.00,VWS V14.00,2013-01-30 06:21:00,
2013-01-30 01:24:00,64.0,58.1,29.66,SW,225,26.0,43.0,81,0.00,,CLR,0.00,VWS V14.00,2013-01-30 06:24:00,
2013-01-30 01:25:00,64.0,58.1,29.66,SSW,202,18.0,43.0,81,0.00,,CLR,0.00,VWS V14.00,2013-01-30 06:25:00,
2013-01-30 01:28:00,65.0,58.7,29.66,SSW,202,19.0,31.0,80,0.00,,CLR,0.00,VWS V14.00,2013-01-30 06:28:00,
2013-01-30 01:29:00,64.0,58.1,29.66,SW,225,15.0,31.0,81,0.00,,CLR,0.00,VWS V14.00,2013-01-30 06:29:00,
2013-01-30 01:30:00,64.0,58.1,29.66,SSW,202,19.0,31.0,81,0.00,,CLR,0.00,VWS V14.00,2013-01-30 06:30:00,
2013-01-30 01:33:00,64.0,58.1,29.68,SW,225,10.0,21.0,81,0.00,,CLR,0.00,VWS V14.00,2013-01-30 06:33:00,
2013-01-30 01:34:00,64.0,58.1,29.68,South,180,18.0,21.0,81,0.00,,CLR,0.00,VWS V14.00,2013-01-30 06:34:00,
2013-01-30 01:37:00,64.0,58.1,29.68,SW,225,13.0,32.0,81,0.00,,CLR,0.00,VWS V14.00,2013-01-30 06:37:00,
2013-01-30 01:39:00,64.0,58.1,29.68,SSW,202,21.0,21.0,81,0.00,,CLR,0.00,VWS V14.00,2013-01-30 06:39:00,
2013-01-30 01:40:00,64.0,58.1,29.68,South,180,21.0,21.0,81,0.00,,CLR,0.00,VWS V14.00,2013-01-30 06:40:00,
2013-01-30 01:42:00,64.0,58.4,29.68,SSW,202,12.0,29.0,82,0.00,,CLR,0.00,VWS V14.00,2013-01-30 06:42:00,
2013-01-30 01:44:00,64.0,58.4,29.68,South,180,21.0,29.0,82,0.00,,CLR,0.00,VWS V14.00,2013-01-30 06:44:00,
2013-01-30 01:45:00,64.0,58.4,29.68,SSW,202,18.0,29.0,82,0.00,,CLR,0.00,VWS V14.00,2013-01-30 06:45:00,
2013-01-30 01:47:00,64.0,58.4,29.68,SW,225,15.0,29.0,82,0.00,,CLR,0.00,VWS V14.00,2013-01-30 06:47:00,
2013-01-30 01:50:00,64.0,58.7,29.68,South,180,17.0,29.0,83,0.00,,CLR,0.00,VWS V14.00,2013-01-30 06:50:00,
2013-01-30 01:52:00,64.0,58.7,29.68,SSW,202,20.0,29.0,83,0.00,,CLR,0.00,VWS V14.00,2013-01-30 06:52:00,
2013-01-30 01:53:00,64.0,58.7,29.68,SW,225,29.0,37.0,83,0.00,,CLR,0.00,VWS V14.00,2013-01-30 06:53:00,
2013-01-30 01:56:00,64.0,58.7,29.67,South,180,24.0,34.0,83,0.00,,CLR,0.00,VWS V14.00,2013-01-30 06:56:00,
2013-01-30 01:58:00,64.0,58.7,29.67,South,180,29.0,34.0,83,0.00,,CLR,0.00,VWS V14.00,2013-01-30 06:58:00,
2013-01-30 02:01:00,64.0,58.7,29.67,South,180,16.0,39.0,83,0.00,,CLR,0.00,VWS V14.00,2013-01-30 07:01:00,
2013-01-30 02:03:00,64.0,58.7,29.68,SSW,202,16.0,24.0,83,0.00,,CLR,0.00,VWS V14.00,2013-01-30 07:03:00,
2013-01-30 02:06:00,64.0,58.4,29.68,SW,225,11.0,31.0,82,0.00,,CLR,0.00,VWS V14.00,2013-01-30 07:06:00,
2013-01-30 02:07:00,64.0,58.7,29.68,SSW,202,23.0,31.0,83,0.00,,CLR,0.00,VWS V14.00,2013-01-30 07:07:00,
2013-01-30 02:09:00,64.0,58.7,29.68,WSW,247,9.0,23.0,83,0.00,,CLR,0.00,VWS V14.00,2013-01-30 07:09:00,
2013-01-30 02:12:00,64.0,58.4,29.68,SSW,202,18.0,28.0,82,0.00,,CLR,0.00,VWS V14.00,2013-01-30 07:12:00,
2013-01-30 02:13:00,64.0,58.4,29.67,SW,225,23.0,28.0,82,0.00,,CLR,0.00,VWS V14.00,2013-01-30 07:13:00,
2013-01-30 02:14:00,64.0,58.4,29.67,SW,225,22.0,23.0,82,0.00,,CLR,0.00,VWS V14.00,2013-01-30 07:14:00,
2013-01-30 02:15:00,64.0,58.7,29.67,SSW,202,10.0,23.0,83,0.00,,CLR,0.00,VWS V14.00,2013-01-30 07:15:00,
2013-01-30 02:18:00,64.0,58.7,29.67,SSW,202,11.0,27.0,83,0.00,,CLR,0.00,VWS V14.00,2013-01-30 07:18:00,
2013-01-30 02:19:00,64.0,58.7,29.67,South,180,16.0,27.0,83,0.00,,CLR,0.00,VWS V14.00,2013-01-30 07:19:00,
2013-01-30 02:20:00,64.0,58.7,29.67,South,180,20.0,27.0,83,0.00,,CLR,0.00,VWS V14.00,2013-01-30 07:20:00,
2013-01-30 02:21:00,64.0,58.7,29.67,SSW,202,23.0,29.0,83,0.00,,CLR,0.00,VWS V14.00,2013-01-30 07:21:00,
2013-01-30 02:24:00,64.0,58.7,29.67,South,180,20.0,28.0,83,0.00,,CLR,0.00,VWS V14.00,2013-01-30 07:24:00,
2013-01-30 02:25:00,64.0,58.7,29.67,South,180,16.0,28.0,83,0.00,,CLR,0.00,VWS V14.00,2013-01-30 07:25:00,
2013-01-30 02:26:00,63.0,57.4,29.67,SSW,202,24.0,28.0,82,0.00,,CLR,0.00,VWS V14.00,2013-01-30 07:26:00,
2013-01-30 02:27:00,64.0,58.4,29.67,SSW,202,16.0,28.0,82,0.00,,CLR,0.00,VWS V14.00,2013-01-30 07:27:00,
2013-01-30 02:29:00,63.0,57.4,29.67,South,180,16.0,26.0,82,0.00,,CLR,0.00,VWS V14.00,2013-01-30 07:29:00,
2013-01-30 02:30:00,63.0,57.4,29.67,South,180,16.0,26.0,82,0.00,,CLR,0.00,VWS V14.00,2013-01-30 07:30:00,
2013-01-30 02:32:00,63.0,57.4,29.67,South,180,24.0,28.0,82,0.00,,CLR,0.00,VWS V14.00,2013-01-30 07:32:00,
2013-01-30 02:35:00,63.0,57.4,29.66,South,180,17.0,27.0,82,0.00,,CLR,0.00,VWS V14.00,2013-01-30 07:35:00,
2013-01-30 02:37:00,63.0,57.4,29.66,South,180,11.0,27.0,82,0.00,,CLR,0.00,VWS V14.00,2013-01-30 07:37:00,
2013-01-30 02:38:00,63.0,57.4,29.66,SSW,202,21.0,25.0,82,0.00,,CLR,0.00,VWS V14.00,2013-01-30 07:38:00,
2013-01-30 02:40:00,63.0,57.4,29.66,South,180,15.0,26.0,82,0.00,,CLR,0.00,VWS V14.00,2013-01-30 07:40:00,
2013-01-30 02:41:00,63.0,57.4,29.66,SSW,202,13.0,26.0,82,0.00,,CLR,0.00,VWS V14.00,2013-01-30 07:41:00,
2013-01-30 02:43:00,63.0,57.4,29.66,South,180,17.0,28.0,82,0.00,,CLR,0.00,VWS V14.00,2013-01-30 07:43:00,
2013-01-30 02:44:00,63.0,57.4,29.64,South,180,22.0,31.0,82,0.00,,CLR,0.00,VWS V14.00,2013-01-30 07:44:00,
2013-01-30 02:45:00,63.0,57.1,29.64,SSW,202,18.0,35.0,81,0.00,,CLR,0.00,VWS V14.00,2013-01-30 07:45:00,
2013-01-30 02:46:00,64.0,58.1,29.64,South,180,20.0,35.0,81,0.00,,CLR,0.00,VWS V14.00,2013-01-30 07:46:00,
2013-01-30 02:48:00,64.0,58.1,29.64,SSW,202,17.0,32.0,81,0.00,,CLR,0.00,VWS V14.00,2013-01-30 07:48:00,
2013-01-30 02:51:00,63.0,56.7,29.64,South,180,16.0,32.0,80,0.00,,CLR,0.00,VWS V14.00,2013-01-30 07:51:00,
2013-01-30 02:52:00,63.0,56.7,29.64,SSE,157,17.0,32.0,80,0.00,,CLR,0.00,VWS V14.00,2013-01-30 07:52:00,
2013-01-30 02:54:00,63.0,56.7,29.64,South,180,15.0,27.0,80,0.00,,CLR,0.00,VWS V14.00,2013-01-30 07:54:00,
2013-01-30 02:57:00,63.0,57.1,29.64,SSW,202,15.0,27.0,81,0.00,,CLR,0.00,VWS V14.00,2013-01-30 07:57:00,
2013-01-30 02:58:00,63.0,57.1,29.64,South,180,11.0,27.0,81,0.00,,CLR,0.00,VWS V14.00,2013-01-30 07:58:00,
2013-01-30 03:00:00,63.0,56.7,29.64,South,180,17.0,34.0,80,0.00,,CLR,0.00,VWS V14.00,2013-01-30 08:00:00,
2013-01-30 03:02:00,63.0,56.7,29.64,South,180,15.0,34.0,80,0.00,,CLR,0.00,VWS V14.00,2013-01-30 08:02:00,
2013-01-30 03:03:00,63.0,56.7,29.63,South,180,12.0,34.0,80,0.00,,CLR,0.00,VWS V14.00,2013-01-30 08:03:00,
2013-01-30 03:04:00,63.0,56.7,29.63,South,180,17.0,20.0,80,0.00,,CLR,0.00,VWS V14.00,2013-01-30 08:04:00,
2013-01-30 03:07:00,63.0,56.7,29.63,South,180,12.0,34.0,80,0.00,,CLR,0.00,VWS V14.00,2013-01-30 08:07:00,
2013-01-30 03:08:00,63.0,56.7,29.63,SSE,157,13.0,34.0,80,0.00,,CLR,0.00,VWS V14.00,2013-01-30 08:08:00,
2013-01-30 03:10:00,63.0,56.4,29.63,South,180,13.0,28.0,79,0.00,,CLR,0.00,VWS V14.00,2013-01-30 08:10:00,
2013-01-30 03:13:00,63.0,56.4,29.61,South,180,27.0,28.0,79,0.00,,CLR,0.00,VWS V14.00,2013-01-30 08:13:00,
2013-01-30 03:14:00,64.0,57.4,29.61,SW,225,22.0,35.0,79,0.00,,CLR,0.00,VWS V14.00,2013-01-30 08:14:00,
2013-01-30 03:17:00,64.0,57.4,29.61,SW,225,22.0,35.0,79,0.00,,CLR,0.00,VWS V14.00,2013-01-30 08:17:00,
2013-01-30 03:18:00,64.0,57.0,29.61,SSW,202,16.0,23.0,78,0.00,,CLR,0.00,VWS V14.00,2013-01-30 08:18:00,
2013-01-30 03:19:00,64.0,56.7,29.61,South,180,15.0,23.0,77,0.00,,CLR,0.00,VWS V14.00,2013-01-30 08:19:00,
2013-01-30 03:21:00,64.0,56.7,29.61,South,180,18.0,26.0,77,0.00,,CLR,0.00,VWS V14.00,2013-01-30 08:21:00,
2013-01-30 03:23:00,64.0,56.7,29.62,SSW,202,21.0,21.0,77,0.00,,CLR,0.00,VWS V14.00,2013-01-30 08:23:00,
2013-01-30 03:25:00,64.0,56.7,29.62,South,180,14.0,31.0,77,0.00,,CLR,0.00,VWS V14.00,2013-01-30 08:25:00,
2013-01-30 03:27:00,64.0,56.7,29.62,South,180,14.0,32.0,77,0.00,,CLR,0.00,VWS V14.00,2013-01-30 08:27:00,
2013-01-30 03:29:00,64.0,56.7,29.62,SSW,202,18.0,26.0,77,0.00,,CLR,0.00,VWS V14.00,2013-01-30 08:29:00,
2013-01-30 03:31:00,64.0,56.7,29.62,SSW,202,11.0,27.0,77,0.00,,CLR,0.00,VWS V14.00,2013-01-30 08:31:00,
2013-01-30 03:32:00,64.0,56.7,29.62,South,180,23.0,28.0,77,0.00,,CLR,0.00,VWS V14.00,2013-01-30 08:32:00,
2013-01-30 03:37:00,64.0,56.3,29.61,South,180,17.0,34.0,76,0.00,,CLR,0.00,VWS V14.00,2013-01-30 08:37:00,
2013-01-30 03:38:00,64.0,56.3,29.61,SSW,202,19.0,23.0,76,0.00,,CLR,0.00,VWS V14.00,2013-01-30 08:38:00,
2013-01-30 03:42:00,64.0,55.9,29.61,South,180,12.0,32.0,75,0.00,,CLR,0.00,VWS V14.00,2013-01-30 08:42:00,
2013-01-30 03:43:00,64.0,55.9,29.60,SW,225,28.0,32.0,75,0.00,,CLR,0.00,VWS V14.00,2013-01-30 08:43:00,
2013-01-30 03:45:00,64.0,56.3,29.60,WSW,247,23.0,28.0,76,0.00,,CLR,0.00,VWS V14.00,2013-01-30 08:45:00,
2013-01-30 03:47:00,64.0,55.9,29.60,SSE,157,13.0,30.0,75,0.00,,CLR,0.00,VWS V14.00,2013-01-30 08:47:00,
2013-01-30 03:48:00,64.0,55.6,29.60,SSW,202,28.0,30.0,75,0.00,,CLR,0.00,VWS V14.00,2013-01-30 08:48:00,
2013-01-30 03:49:00,64.0,55.6,29.60,South,180,28.0,35.0,74,0.00,,CLR,0.00,VWS V14.00,2013-01-30 08:49:00,
2013-01-30 03:50:00,65.0,55.8,29.60,SW,225,21.0,36.0,72,0.00,,CLR,0.00,VWS V14.00,2013-01-30 08:50:00,
2013-01-30 03:53:00,65.0,56.2,29.60,South,180,16.0,36.0,73,0.00,,CLR,0.00,VWS V14.00,2013-01-30 08:53:00,
2013-01-30 03:54:00,65.0,56.2,29.59,SSW,202,20.0,31.0,73,0.00,,CLR,0.00,VWS V14.00,2013-01-30 08:54:00,
2013-01-30 03:55:00,65.0,56.2,29.59,SSW,202,24.0,31.0,73,0.00,,CLR,0.00,VWS V14.00,2013-01-30 08:55:00,
2013-01-30 03:56:00,64.0,55.6,29.59,South,180,16.0,31.0,74,0.00,,CLR,0.00,VWS V14.00,2013-01-30 08:56:00,
2013-01-30 03:58:00,64.0,55.6,29.59,SSW,202,19.0,31.0,74,0.00,,CLR,0.00,VWS V14.00,2013-01-30 08:58:00,
2013-01-30 03:59:00,64.0,55.6,29.59,South,180,21.0,30.0,74,0.00,,CLR,0.00,VWS V14.00,2013-01-30 08:59:00,
2013-01-30 04:00:00,64.0,55.6,29.59,SW,225,23.0,30.0,74,0.00,,CLR,0.00,VWS V14.00,2013-01-30 09:00:00,
2013-01-30 04:02:00,64.0,55.6,29.59,SW,225,16.0,31.0,74,0.00,,CLR,0.00,VWS V14.00,2013-01-30 09:02:00,
2013-01-30 04:03:00,64.0,55.6,29.59,South,180,19.0,28.0,74,0.00,,CLR,0.00,VWS V14.00,2013-01-30 09:03:00,
2013-01-30 04:05:00,64.0,55.6,29.59,South,180,15.0,28.0,74,0.00,,CLR,0.00,VWS V14.00,2013-01-30 09:05:00,
2013-01-30 04:07:00,64.0,55.6,29.59,SSW,202,13.0,29.0,74,0.00,,CLR,0.00,VWS V14.00,2013-01-30 09:07:00,
2013-01-30 04:08:00,64.0,55.6,29.59,SW,225,24.0,32.0,74,0.00,,CLR,0.00,VWS V14.00,2013-01-30 09:08:00,
2013-01-30 04:10:00,64.0,55.6,29.59,South,180,16.0,32.0,74,0.00,,CLR,0.00,VWS V14.00,2013-01-30 09:10:00,
2013-01-30 04:11:00,64.0,55.6,29.59,SSW,202,23.0,32.0,74,0.00,,CLR,0.00,VWS V14.00,2013-01-30 09:11:00,
2013-01-30 04:14:00,64.0,55.6,29.57,South,180,19.0,26.0,74,0.00,,CLR,0.00,VWS V14.00,2013-01-30 09:14:00,
2013-01-30 04:17:00,64.0,55.6,29.57,South,180,21.0,30.0,74,0.00,,CLR,0.00,VWS V14.00,2013-01-30 09:17:00,
2013-01-30 04:19:00,64.0,55.6,29.57,South,180,25.0,27.0,74,0.00,,CLR,0.00,VWS V14.00,2013-01-30 09:19:00,
2013-01-30 04:20:00,64.0,55.6,29.57,SSW,202,20.0,30.0,74,0.00,,CLR,0.00,VWS V14.00,2013-01-30 09:20:00,
2013-01-30 04:22:00,64.0,55.6,29.57,SSW,202,13.0,39.0,74,0.00,,CLR,0.00,VWS V14.00,2013-01-30 09:22:00,
2013-01-30 04:24:00,64.0,55.6,29.57,SW,225,23.0,32.0,74,0.00,,CLR,0.00,VWS V14.00,2013-01-30 09:24:00,
2013-01-30 04:25:00,64.0,55.6,29.57,South,180,13.0,32.0,74,0.00,,CLR,0.00,VWS V14.00,2013-01-30 09:25:00,
2013-01-30 04:26:00,64.0,55.6,29.57,South,180,17.0,32.0,74,0.00,,CLR,0.00,VWS V14.00,2013-01-30 09:26:00,
2013-01-30 04:29:00,64.0,55.6,29.57,South,180,11.0,32.0,74,0.00,,CLR,0.00,VWS V14.00,2013-01-30 09:29:00,
2013-01-30 04:30:00,64.0,55.6,29.57,South,180,16.0,32.0,74,0.00,,CLR,0.00,VWS V14.00,2013-01-30 09:30:00,
2013-01-30 04:31:00,64.0,55.6,29.57,SSW,202,13.0,32.0,74,0.00,,CLR,0.00,VWS V14.00,2013-01-30 09:31:00,
2013-01-30 04:35:00,64.0,55.6,29.56,South,180,21.0,33.0,74,0.00,,CLR,0.00,VWS V14.00,2013-01-30 09:35:00,
2013-01-30 04:36:00,64.0,55.6,29.56,SW,225,23.0,33.0,74,0.00,,CLR,0.00,VWS V14.00,2013-01-30 09:36:00,
2013-01-30 04:37:00,64.0,55.2,29.56,South,180,18.0,33.0,73,0.00,,CLR,0.00,VWS V14.00,2013-01-30 09:37:00,
2013-01-30 04:41:00,64.0,55.2,29.56,SSW,202,19.0,31.0,73,0.00,,CLR,0.00,VWS V14.00,2013-01-30 09:41:00,
2013-01-30 04:42:00,64.0,55.2,29.56,South,180,15.0,31.0,73,0.00,,CLR,0.00,VWS V14.00,2013-01-30 09:42:00,
2013-01-30 04:45:00,64.0,55.2,29.56,SW,225,18.0,23.0,73,0.00,,CLR,0.00,VWS V14.00,2013-01-30 09:45:00,
2013-01-30 04:46:00,64.0,55.6,29.56,South,180,9.0,24.0,74,0.00,,CLR,0.00,VWS V14.00,2013-01-30 09:46:00,
2013-01-30 04:49:00,64.0,55.2,29.56,SW,225,24.0,28.0,73,0.00,,CLR,0.00,VWS V14.00,2013-01-30 09:49:00,
2013-01-30 04:50:00,64.0,55.2,29.56,SW,225,20.0,31.0,73,0.00,,CLR,0.00,VWS V14.00,2013-01-30 09:50:00,
2013-01-30 04:51:00,64.0,54.8,29.56,South,180,14.0,31.0,72,0.00,,CLR,0.00,VWS V14.00,2013-01-30 09:51:00,
2013-01-30 04:52:00,64.0,54.8,29.56,South,180,16.0,31.0,72,0.00,,CLR,0.00,VWS V14.00,2013-01-30 09:52:00,
2013-01-30 04:54:00,64.0,55.2,29.55,SW,225,18.0,24.0,73,0.00,,CLR,0.00,VWS V14.00,2013-01-30 09:54:00,
2013-01-30 04:56:00,64.0,55.2,29.55,South,180,21.0,28.0,73,0.00,,CLR,0.00,VWS V14.00,2013-01-30 09:56:00,
2013-01-30 04:57:00,64.0,55.2,29.55,South,180,16.0,28.0,73,0.00,,CLR,0.00,VWS V14.00,2013-01-30 09:57:00,
2013-01-30 05:00:00,64.0,54.8,29.55,SSW,202,19.0,26.0,72,0.00,,CLR,0.00,VWS V14.00,2013-01-30 10:00:00,
2013-01-30 05:02:00,64.0,54.8,29.55,SW,225,24.0,29.0,72,0.00,,CLR,0.00,VWS V14.00,2013-01-30 10:02:00,
2013-01-30 05:03:00,64.0,54.8,29.55,South,180,23.0,29.0,72,0.00,,CLR,0.00,VWS V14.00,2013-01-30 10:03:00,
2013-01-30 05:04:00,64.0,54.8,29.55,South,180,26.0,26.0,72,0.00,,CLR,0.00,VWS V14.00,2013-01-30 10:04:00,
2013-01-30 05:06:00,64.0,54.8,29.55,SSW,202,24.0,28.0,72,0.00,,CLR,0.00,VWS V14.00,2013-01-30 10:06:00,
2013-01-30 05:07:00,64.0,54.8,29.55,South,180,14.0,28.0,72,0.00,,CLR,0.00,VWS V14.00,2013-01-30 10:07:00,
2013-01-30 05:08:00,64.0,54.8,29.55,South,180,14.0,28.0,72,0.00,,CLR,0.00,VWS V14.00,2013-01-30 10:08:00,
2013-01-30 05:10:00,64.0,54.8,29.55,South,180,11.0,25.0,72,0.00,,CLR,0.00,VWS V14.00,2013-01-30 10:10:00,
2013-01-30 05:13:00,64.0,54.8,29.55,South,180,25.0,28.0,72,0.00,,CLR,0.00,VWS V14.00,2013-01-30 10:13:00,
2013-01-30 05:15:00,64.0,54.8,29.56,South,180,23.0,28.0,72,0.00,,CLR,0.00,VWS V14.00,2013-01-30 10:15:00,
2013-01-30 05:18:00,64.0,54.8,29.56,SW,225,11.0,28.0,72,0.00,,CLR,0.00,VWS V14.00,2013-01-30 10:18:00,
2013-01-30 05:21:00,64.0,54.8,29.56,South,180,14.0,26.0,72,0.00,,CLR,0.00,VWS V14.00,2013-01-30 10:21:00,
2013-01-30 05:22:00,64.0,54.8,29.56,South,180,16.0,26.0,72,0.00,,CLR,0.00,VWS V14.00,2013-01-30 10:22:00,
2013-01-30 05:23:00,64.0,54.8,29.56,South,180,26.0,26.0,72,0.00,,CLR,0.00,VWS V14.00,2013-01-30 10:23:00,
2013-01-30 05:24:00,64.0,54.8,29.56,South,180,15.0,26.0,72,0.00,,CLR,0.00,VWS V14.00,2013-01-30 10:24:00,
2013-01-30 05:26:00,64.0,54.8,29.56,SW,225,16.0,26.0,72,0.00,,CLR,0.00,VWS V14.00,2013-01-30 10:26:00,
2013-01-30 05:28:00,64.0,54.8,29.56,South,180,12.0,29.0,72,0.00,,CLR,0.00,VWS V14.00,2013-01-30 10:28:00,
2013-01-30 05:29:00,64.0,54.8,29.56,SSW,202,16.0,22.0,72,0.00,,CLR,0.00,VWS V14.00,2013-01-30 10:29:00,
2013-01-30 05:33:00,64.0,54.8,29.55,SW,225,14.0,33.0,72,0.00,,CLR,0.00,VWS V14.00,2013-01-30 10:33:00,
2013-01-30 05:34:00,64.0,54.8,29.55,South,180,15.0,28.0,72,0.00,,CLR,0.00,VWS V14.00,2013-01-30 10:34:00,
2013-01-30 05:38:00,64.0,54.8,29.55,South,180,10.0,15.0,72,0.00,,CLR,0.00,VWS V14.00,2013-01-30 10:38:00,
2013-01-30 05:39:00,63.0,54.2,29.55,SW,225,11.0,17.0,73,0.00,,CLR,0.00,VWS V14.00,2013-01-30 10:39:00,
2013-01-30 05:40:00,63.0,54.2,29.55,South,180,12.0,23.0,73,0.00,,CLR,0.00,VWS V14.00,2013-01-30 10:40:00,
2013-01-30 05:41:00,63.0,54.2,29.55,South,180,13.0,23.0,73,0.00,,CLR,0.00,VWS V14.00,2013-01-30 10:41:00,
2013-01-30 05:43:00,64.0,55.2,29.55,South,180,11.0,18.0,73,0.00,,CLR,0.00,VWS V14.00,2013-01-30 10:43:00,
2013-01-30 05:44:00,64.0,55.2,29.55,South,180,11.0,18.0,73,0.00,,CLR,0.00,VWS V14.00,2013-01-30 10:44:00,
2013-01-30 05:46:00,64.0,55.2,29.55,South,180,16.0,21.0,73,0.00,,CLR,0.00,VWS V14.00,2013-01-30 10:46:00,
2013-01-30 05:47:00,64.0,55.2,29.55,South,180,10.0,23.0,73,0.00,,CLR,0.00,VWS V14.00,2013-01-30 10:47:00,
2013-01-30 05:50:00,64.0,55.2,29.55,SW,225,18.0,23.0,73,0.00,,CLR,0.00,VWS V14.00,2013-01-30 10:50:00,
2013-01-30 05:51:00,64.0,55.2,29.55,SSW,202,19.0,29.0,73,0.00,,CLR,0.00,VWS V14.00,2013-01-30 10:51:00,
2013-01-30 05:53:00,64.0,55.2,29.55,South,180,18.0,29.0,73,0.00,,CLR,0.00,VWS V14.00,2013-01-30 10:53:00,
2013-01-30 05:56:00,64.0,55.2,29.54,South,180,15.0,28.0,73,0.00,,CLR,0.00,VWS V14.00,2013-01-30 10:56:00,
2013-01-30 05:57:00,64.0,55.2,29.54,SW,225,17.0,28.0,73,0.00,,CLR,0.00,VWS V14.00,2013-01-30 10:57:00,
2013-01-30 05:58:00,64.0,55.2,29.54,SSW,202,18.0,28.0,73,0.00,,CLR,0.00,VWS V14.00,2013-01-30 10:58:00,
2013-01-30 06:02:00,64.0,55.6,29.54,SSW,202,13.0,28.0,73,0.00,,FEW120,0.00,VWS V14.00,2013-01-30 11:02:00,
2013-01-30 06:03:00,64.0,55.6,29.54,SSW,202,11.0,28.0,74,0.00,,FEW120,0.00,VWS V14.00,2013-01-30 11:03:00,
2013-01-30 06:08:00,64.0,55.6,29.53,South,180,11.0,26.0,74,0.00,,FEW120,0.00,VWS V14.00,2013-01-30 11:08:00,
2013-01-30 06:09:00,64.0,55.6,29.53,South,180,15.0,21.0,74,0.00,,FEW120,0.00,VWS V14.00,2013-01-30 11:09:00,
2013-01-30 06:14:00,64.0,55.6,29.53,SW,225,21.0,26.0,74,0.00,,FEW120,0.00,VWS V14.00,2013-01-30 11:14:00,
2013-01-30 06:15:00,64.0,55.6,29.53,South,180,24.0,26.0,74,0.00,,FEW120,0.00,VWS V14.00,2013-01-30 11:15:00,
2013-01-30 06:19:00,64.0,55.6,29.53,South,180,13.0,20.0,74,0.00,,FEW120,0.00,VWS V14.00,2013-01-30 11:19:00,
2013-01-30 06:20:00,64.0,55.6,29.53,South,180,11.0,20.0,74,0.00,,FEW120,0.00,VWS V14.00,2013-01-30 11:20:00,
2013-01-30 06:21:00,64.0,55.6,29.53,SW,225,14.0,20.0,74,0.00,,FEW120,0.00,VWS V14.00,2013-01-30 11:21:00,
2013-01-30 06:22:00,64.0,55.6,29.53,SW,225,13.0,20.0,74,0.00,,FEW120,0.00,VWS V14.00,2013-01-30 11:22:00,
2013-01-30 06:25:00,64.0,55.6,29.52,South,180,20.0,22.0,74,0.00,,FEW120,0.00,VWS V14.00,2013-01-30 11:25:00,
2013-01-30 06:26:00,64.0,55.6,29.52,South,180,13.0,22.0,74,0.00,,FEW120,0.00,VWS V14.00,2013-01-30 11:26:00,
2013-01-30 06:27:00,64.0,55.6,29.52,SW,225,16.0,22.0,74,0.00,,FEW120,0.00,VWS V14.00,2013-01-30 11:27:00,
2013-01-30 06:28:00,64.0,55.6,29.52,South,180,14.0,26.0,74,0.00,,FEW120,0.00,VWS V14.00,2013-01-30 11:28:00,
2013-01-30 06:30:00,64.0,55.6,29.52,SSW,202,10.0,26.0,74,0.00,,FEW120,0.00,VWS V14.00,2013-01-30 11:30:00,
2013-01-30 06:32:00,64.0,55.6,29.52,South,180,19.0,33.0,74,0.00,,FEW120,0.00,VWS V14.00,2013-01-30 11:32:00,
2013-01-30 06:33:00,64.0,55.6,29.52,SSE,157,18.0,33.0,74,0.00,,FEW120,0.00,VWS V14.00,2013-01-30 11:33:00,
2013-01-30 06:35:00,64.0,55.6,29.52,South,180,17.0,26.0,74,0.00,,FEW120,0.00,VWS V14.00,2013-01-30 11:35:00,
2013-01-30 06:36:00,64.0,55.6,29.52,South,180,11.0,26.0,74,0.00,,FEW120,0.00,VWS V14.00,2013-01-30 11:36:00,
2013-01-30 06:38:00,64.0,55.6,29.52,South,180,19.0,28.0,74,0.00,,FEW120,0.00,VWS V14.00,2013-01-30 11:38:00,
2013-01-30 06:40:00,64.0,55.6,29.52,South,180,13.0,23.0,74,0.00,,FEW120,0.00,VWS V14.00,2013-01-30 11:40:00,
2013-01-30 06:42:00,64.0,55.6,29.52,South,180,13.0,23.0,74,0.00,,FEW120,0.00,VWS V14.00,2013-01-30 11:42:00,
2013-01-30 06:44:00,64.0,55.6,29.50,South,180,18.0,24.0,74,0.00,,FEW120,0.00,VWS V14.00,2013-01-30 11:44:00,
2013-01-30 06:45:00,64.0,55.6,29.50,SSW,202,18.0,26.0,74,0.00,,FEW120,0.00,VWS V14.00,2013-01-30 11:45:00,
2013-01-30 06:46:00,64.0,55.6,29.50,South,180,13.0,26.0,74,0.00,,FEW120,0.00,VWS V14.00,2013-01-30 11:46:00,
2013-01-30 06:48:00,64.0,55.6,29.50,South,180,13.0,22.0,74,0.00,,FEW120,0.00,VWS V14.00,2013-01-30 11:48:00,
2013-01-30 06:50:00,64.0,55.2,29.50,South,180,14.0,28.0,73,0.00,,FEW120,0.00,VWS V14.00,2013-01-30 11:50:00,
2013-01-30 06:51:00,64.0,55.6,29.50,SSW,202,16.0,28.0,74,0.00,,FEW120,0.00,VWS V14.00,2013-01-30 11:51:00,
2013-01-30 06:52:00,64.0,55.6,29.50,South,180,16.0,29.0,74,0.00,,FEW120,0.00,VWS V14.00,2013-01-30 11:52:00,
2013-01-30 06:54:00,64.0,55.6,29.50,South,180,16.0,21.0,74,0.00,,FEW120,0.00,VWS V14.00,2013-01-30 11:54:00,
2013-01-30 06:56:00,64.0,55.6,29.50,South,180,20.0,29.0,74,0.00,,FEW120,0.00,VWS V14.00,2013-01-30 11:56:00,
2013-01-30 06:59:00,64.0,55.6,29.50,SW,225,15.0,20.0,74,0.00,,FEW120,0.00,VWS V14.00,2013-01-30 11:59:00,
2013-01-30 07:01:00,64.0,55.6,29.50,SW,225,18.0,30.0,74,0.00,,BKN100,0.00,VWS V14.00,2013-01-30 12:01:00,
2013-01-30 07:02:00,64.0,55.6,29.50,South,180,16.0,30.0,74,0.00,,BKN100,0.00,VWS V14.00,2013-01-30 12:02:00,
2013-01-30 07:04:00,64.0,55.6,29.49,SW,225,18.0,20.0,74,0.00,,BKN100,0.00,VWS V14.00,2013-01-30 12:04:00,
2013-01-30 07:08:00,64.0,55.6,29.49,South,180,18.0,30.0,74,0.00,,BKN100,0.00,VWS V14.00,2013-01-30 12:08:00,
2013-01-30 07:09:00,64.0,55.2,29.49,SW,225,18.0,26.0,73,0.00,,BKN100,0.00,VWS V14.00,2013-01-30 12:09:00,
2013-01-30 07:10:00,64.0,55.6,29.49,South,180,11.0,26.0,74,0.00,,BKN100,0.00,VWS V14.00,2013-01-30 12:10:00,
2013-01-30 07:13:00,65.0,56.5,29.48,SSW,202,19.0,21.0,74,0.00,,BKN100,0.00,VWS V14.00,2013-01-30 12:13:00,
2013-01-30 07:14:00,64.0,55.6,29.48,SW,225,17.0,26.0,74,0.00,,BKN100,0.00,VWS V14.00,2013-01-30 12:14:00,
2013-01-30 07:15:00,64.0,55.6,29.48,South,180,10.0,26.0,74,0.00,,BKN100,0.00,VWS V14.00,2013-01-30 12:15:00,
2013-01-30 07:17:00,64.0,55.6,29.48,South,180,11.0,26.0,74,0.00,,BKN100,0.00,VWS V14.00,2013-01-30 12:17:00,
2013-01-30 07:20:00,64.0,55.6,29.48,South,180,13.0,23.0,74,0.00,,BKN100,0.00,VWS V14.00,2013-01-30 12:20:00,
2013-01-30 07:21:00,64.0,55.6,29.48,SSW,202,9.0,23.0,74,0.00,,BKN100,0.00,VWS V14.00,2013-01-30 12:21:00,
2013-01-30 07:22:00,64.0,55.6,29.48,South,180,12.0,23.0,74,0.00,,BKN100,0.00,VWS V14.00,2013-01-30 12:22:00,
2013-01-30 07:26:00,64.0,55.6,29.47,South,180,25.0,31.0,74,0.00,,BKN100,0.00,VWS V14.00,2013-01-30 12:26:00,
2013-01-30 07:28:00,65.0,56.5,29.47,South,180,11.0,34.0,74,0.00,,BKN100,0.00,VWS V14.00,2013-01-30 12:28:00,
2013-01-30 07:29:00,65.0,56.2,29.47,SW,225,15.0,19.0,73,0.00,,BKN100,0.00,VWS V14.00,2013-01-30 12:29:00,
2013-01-30 07:33:00,65.0,56.5,29.47,SSW,202,11.0,26.0,74,0.00,,BKN100,0.00,VWS V14.00,2013-01-30 12:33:00,
2013-01-30 07:34:00,65.0,56.5,29.47,SSW,202,11.0,23.0,74,0.00,,BKN100,0.00,VWS V14.00,2013-01-30 12:34:00,
2013-01-30 07:35:00,65.0,56.5,29.47,SW,225,12.0,23.0,74,0.00,,BKN100,0.00,VWS V14.00,2013-01-30 12:35:00,
2013-01-30 07:38:00,65.0,56.5,29.47,South,180,15.0,23.0,74,0.00,,BKN100,0.00,VWS V14.00,2013-01-30 12:38:00,
2013-01-30 07:39:00,65.0,56.5,29.47,South,180,20.0,20.0,74,0.00,,BKN100,0.00,VWS V14.00,2013-01-30 12:39:00,
2013-01-30 07:40:00,65.0,56.5,29.47,SSW,202,14.0,26.0,74,0.00,,BKN100,0.00,VWS V14.00,2013-01-30 12:40:00,
2013-01-30 07:43:00,65.0,56.5,29.46,SSE,157,20.0,20.0,74,0.00,,BKN100,0.00,VWS V14.00,2013-01-30 12:43:00,
2013-01-30 07:44:00,65.0,56.5,29.46,SW,225,15.0,28.0,74,0.00,,BKN100,0.00,VWS V14.00,2013-01-30 12:44:00,
2013-01-30 07:45:00,65.0,56.5,29.46,South,180,11.0,28.0,74,0.00,,BKN100,0.00,VWS V14.00,2013-01-30 12:45:00,
2013-01-30 07:46:00,65.0,56.5,29.46,SSW,202,14.0,28.0,74,0.00,,BKN100,0.00,VWS V14.00,2013-01-30 12:46:00,
2013-01-30 07:49:00,65.0,56.5,29.46,South,180,15.0,28.0,74,0.00,,BKN100,0.00,VWS V14.00,2013-01-30 12:49:00,
2013-01-30 07:50:00,65.0,56.5,29.46,SSW,202,16.0,28.0,74,0.00,,BKN100,0.00,VWS V14.00,2013-01-30 12:50:00,
2013-01-30 07:51:00,65.0,56.5,29.46,SSW,202,18.0,28.0,74,0.00,,BKN100,0.00,VWS V14.00,2013-01-30 12:51:00,
2013-01-30 07:52:00,65.0,56.5,29.46,SW,225,12.0,28.0,74,0.00,,BKN100,0.00,VWS V14.00,2013-01-30 12:52:00,
2013-01-30 07:55:00,65.0,56.9,29.45,South,180,18.0,34.0,75,0.00,,BKN100,0.00,VWS V14.00,2013-01-30 12:55:00,
2013-01-30 07:56:00,65.0,56.9,29.45,SW,225,13.0,34.0,75,0.00,,BKN100,0.00,VWS V14.00,2013-01-30 12:56:00,
2013-01-30 07:57:00,65.0,56.9,29.45,SSW,202,13.0,34.0,75,0.00,,BKN100,0.00,VWS V14.00,2013-01-30 12:57:00,
2013-01-30 08:01:00,65.0,56.9,29.45,SW,225,32.0,32.0,75,0.00,,BKN100,0.00,VWS V14.00,2013-01-30 13:01:00,
2013-01-30 08:03:00,65.0,56.9,29.46,SSW,202,23.0,23.0,75,0.00,,BKN110,0.00,VWS V14.00,2013-01-30 13:03:00,
2013-01-30 08:04:00,65.0,56.9,29.46,South,180,16.0,25.0,75,0.00,,BKN110,0.00,VWS V14.00,2013-01-30 13:04:00,
2013-01-30 08:07:00,64.0,52.4,29.46,West,270,22.0,32.0,74,0.00,,BKN110,0.00,VWS V14.00,2013-01-30 13:07:00,
2013-01-30 08:09:00,57.0,50.6,29.46,West,270,19.0,26.0,79,0.00,,BKN110,0.00,VWS V14.00,2013-01-30 13:09:00,
2013-01-30 08:12:00,53.0,51.0,29.46,SW,225,21.0,28.0,93,0.00,,BKN110,0.00,VWS V14.00,2013-01-30 13:12:00,
2013-01-30 08:14:00,52.0,50.3,29.52,SW,225,13.0,26.0,94,0.00,,BKN110,0.00,VWS V14.00,2013-01-30 13:14:00,
2013-01-30 08:15:00,52.0,50.0,29.52,WSW,247,13.0,26.0,93,0.00,,BKN110,0.00,VWS V14.00,2013-01-30 13:15:00,
2013-01-30 08:17:00,50.0,48.6,29.52,WSW,247,18.0,26.0,95,0.00,,BKN110,0.00,VWS V14.00,2013-01-30 13:17:00,
2013-01-30 08:18:00,50.0,49.2,29.52,West,270,16.0,26.0,95,0.00,,BKN110,0.00,VWS V14.00,2013-01-30 13:18:00,
2013-01-30 08:19:00,49.0,47.9,29.52,West,270,20.0,23.0,96,0.00,,BKN110,0.00,VWS V14.00,2013-01-30 13:19:00,
2013-01-30 08:20:00,49.0,48.2,29.52,West,270,17.0,23.0,97,0.00,,-RA,0.00,VWS V14.00,2013-01-30 13:20:00,
2013-01-30 08:23:00,48.0,47.5,29.53,West,270,14.0,15.0,98,0.00,,-RA,0.00,VWS V14.00,2013-01-30 13:23:00,
2013-01-30 08:25:00,47.0,46.5,29.53,WSW,247,16.0,18.0,98,0.00,,-RA,0.00,VWS V14.00,2013-01-30 13:25:00,
2013-01-30 08:28:00,47.0,45.7,29.53,WSW,247,11.0,19.0,99,0.00,,-RA,0.00,VWS V14.00,2013-01-30 13:28:00,
2013-01-30 08:29:00,46.0,45.7,29.53,WSW,247,18.0,18.0,99,0.00,,-RA,0.00,VWS V14.00,2013-01-30 13:29:00,
2013-01-30 08:31:00,45.0,44.7,29.53,West,270,15.0,20.0,99,0.00,,-RA,0.00,VWS V14.00,2013-01-30 13:31:00,
2013-01-30 08:33:00,46.0,46.0,29.53,West,270,15.0,24.0,100,0.00,,-RA,0.00,VWS V14.00,2013-01-30 13:33:00,
2013-01-30 08:34:00,46.0,46.0,29.53,West,270,21.0,24.0,100,0.00,,-RA,0.00,VWS V14.00,2013-01-30 13:34:00,
2013-01-30 08:36:00,46.0,46.0,29.53,West,270,9.0,24.0,100,0.00,,-RA,0.00,VWS V14.00,2013-01-30 13:36:00,
2013-01-30 08:39:00,45.0,45.0,29.53,West,270,15.0,23.0,100,0.00,,-RA,0.00,VWS V14.00,2013-01-30 13:39:00,
2013-01-30 08:40:00,45.0,45.0,29.53,West,270,13.0,23.0,100,0.00,,-RA,0.00,VWS V14.00,2013-01-30 13:40:00,
2013-01-30 08:41:00,45.0,45.0,29.53,West,270,11.0,23.0,100,0.00,,-RA,0.00,VWS V14.00,2013-01-30 13:41:00,
2013-01-30 08:45:00,45.0,45.0,29.54,WSW,247,15.0,18.0,100,0.00,,-RA,0.00,VWS V14.00,2013-01-30 13:45:00,
2013-01-30 08:46:00,44.0,44.0,29.54,SW,225,13.0,18.0,100,0.00,,-RA,0.00,VWS V14.00,2013-01-30 13:46:00,
2013-01-30 08:47:00,44.0,44.0,29.54,SW,225,9.0,18.0,100,0.00,,-RA,0.00,VWS V14.00,2013-01-30 13:47:00,
2013-01-30 08:50:00,45.0,45.0,29.54,SW,225,10.0,15.0,100,0.00,,-RA,0.00,VWS V14.00,2013-01-30 13:50:00,
2013-01-30 08:51:00,45.0,45.0,29.54,SW,225,10.0,16.0,100,0.00,,-RA,0.00,VWS V14.00,2013-01-30 13:51:00,
2013-01-30 08:52:00,45.0,45.0,29.54,SSW,202,13.0,16.0,100,0.00,,-RA,0.00,VWS V14.00,2013-01-30 13:52:00,
2013-01-30 08:56:00,46.0,46.0,29.54,SW,225,10.0,15.0,100,0.00,,-RA,0.00,VWS V14.00,2013-01-30 13:56:00,
2013-01-30 08:57:00,47.0,47.0,29.54,WSW,247,11.0,15.0,100,0.00,,-RA,0.00,VWS V14.00,2013-01-30 13:57:00,
2013-01-30 08:58:00,47.0,47.0,29.54,SW,225,8.0,15.0,100,0.00,,-RA,0.00,VWS V14.00,2013-01-30 13:58:00,
2013-01-30 09:01:00,47.0,47.0,29.54,SSW,202,8.0,11.0,100,0.00,,-RA,0.00,VWS V14.00,2013-01-30 14:01:00,
2013-01-30 09:03:00,48.0,48.0,29.54,SW,225,8.0,11.0,100,0.00,,-RA,0.00,VWS V14.00,2013-01-30 14:03:00,
2013-01-30 09:04:00,48.0,48.0,29.53,SSW,202,10.0,10.0,100,0.00,,-RA,0.00,VWS V14.00,2013-01-30 14:04:00,
2013-01-30 09:07:00,49.0,49.0,29.53,SSW,202,5.0,10.0,100,0.00,,-RA,0.00,VWS V14.00,2013-01-30 14:07:00,
2013-01-30 09:08:00,49.0,49.0,29.53,South,180,6.0,6.0,100,0.00,,-RA,0.00,VWS V14.00,2013-01-30 14:08:00,
2013-01-30 09:09:00,49.0,49.0,29.53,SSW,202,8.0,8.0,100,0.00,,-RA,0.00,VWS V14.00,2013-01-30 14:09:00,
2013-01-30 09:10:00,49.0,49.0,29.53,SSW,202,6.0,9.0,100,0.00,,-RA,0.00,VWS V14.00,2013-01-30 14:10:00,
2013-01-30 09:13:00,49.0,49.0,29.54,SSW,202,6.0,6.0,100,0.00,,-RA,0.00,VWS V14.00,2013-01-30 14:13:00,
2013-01-30 09:14:00,49.0,49.0,29.54,South,180,6.0,8.0,100,0.00,,-RA,0.00,VWS V14.00,2013-01-30 14:14:00,
2013-01-30 09:15:00,49.0,49.0,29.54,South,180,8.0,8.0,100,0.00,,-RA,0.00,VWS V14.00,2013-01-30 14:15:00,
2013-01-30 09:18:00,50.0,50.0,29.54,South,180,5.0,7.0,100,0.00,,-RA,0.00,VWS V14.00,2013-01-30 14:18:00,
2013-01-30 09:19:00,50.0,50.0,29.54,South,180,8.0,9.0,100,0.00,,-RA,0.00,VWS V14.00,2013-01-30 14:19:00,
2013-01-30 09:20:00,50.0,50.0,29.54,South,180,8.0,9.0,100,0.00,,,0.00,VWS V14.00,2013-01-30 14:20:00,
2013-01-30 09:21:00,50.0,50.0,29.54,South,180,7.0,9.0,100,0.00,,,0.00,VWS V14.00,2013-01-30 14:21:00,
2013-01-30 09:24:00,51.0,51.0,29.53,South,180,6.0,7.0,100,0.00,,,0.00,VWS V14.00,2013-01-30 14:24:00,
2013-01-30 09:25:00,51.0,51.0,29.53,South,180,6.0,7.0,100,0.00,,,0.00,VWS V14.00,2013-01-30 14:25:00,
2013-01-30 09:26:00,51.0,51.0,29.53,South,180,8.0,8.0,100,0.00,,,0.00,VWS V14.00,2013-01-30 14:26:00,
2013-01-30 09:30:00,51.0,51.0,29.53,South,180,6.0,8.0,100,0.00,,,0.00,VWS V14.00,2013-01-30 14:30:00,
2013-01-30 09:31:00,51.0,51.0,29.53,South,180,6.0,8.0,100,0.00,,,0.00,VWS V14.00,2013-01-30 14:31:00,
2013-01-30 09:32:00,51.0,51.0,29.53,South,180,8.0,9.0,100,0.00,,,0.00,VWS V14.00,2013-01-30 14:32:00,
2013-01-30 09:36:00,52.0,52.0,29.53,South,180,6.0,10.0,100,0.00,,,0.00,VWS V14.00,2013-01-30 14:36:00,
2013-01-30 09:37:00,52.0,52.0,29.53,South,180,7.0,10.0,100,0.00,,,0.00,VWS V14.00,2013-01-30 14:37:00,
2013-01-30 09:38:00,52.0,52.0,29.53,South,180,5.0,10.0,100,0.00,,,0.00,VWS V14.00,2013-01-30 14:38:00,
2013-01-30 09:41:00,52.0,52.0,29.53,South,180,7.0,10.0,100,0.00,,,0.00,VWS V14.00,2013-01-30 14:41:00,
2013-01-30 09:43:00,52.0,52.0,29.54,South,180,5.0,6.0,100,0.00,,,0.00,VWS V14.00,2013-01-30 14:43:00,
2013-01-30 09:48:00,53.0,53.0,29.54,South,180,7.0,8.0,100,0.00,,,0.00,VWS V14.00,2013-01-30 14:48:00,
2013-01-30 09:49:00,53.0,53.0,29.54,South,180,6.0,8.0,100,0.00,,,0.00,VWS V14.00,2013-01-30 14:49:00,
2013-01-30 09:50:00,53.0,53.0,29.54,South,180,5.0,8.0,100,0.00,,,0.00,VWS V14.00,2013-01-30 14:50:00,
2013-01-30 09:53:00,53.0,53.0,29.53,SSE,157,8.0,10.0,100,0.00,,,0.00,VWS V14.00,2013-01-30 14:53:00,
2013-01-30 09:54:00,53.0,53.0,29.53,SSE,157,6.0,10.0,100,0.00,,,0.00,VWS V14.00,2013-01-30 14:54:00,
2013-01-30 09:55:00,53.0,53.0,29.53,SSE,157,7.0,10.0,100,0.00,,,0.00,VWS V14.00,2013-01-30 14:55:00,
2013-01-30 09:59:00,53.0,53.0,29.53,South,180,8.0,10.0,100,0.00,,,0.00,VWS V14.00,2013-01-30 14:59:00,
2013-01-30 10:00:00,53.0,53.0,29.53,SSE,157,8.0,12.0,100,0.00,,,0.00,VWS V14.00,2013-01-30 15:00:00,
2013-01-30 10:01:00,54.0,54.0,29.53,South,180,7.0,12.0,100,0.00,,RA,0.00,VWS V14.00,2013-01-30 15:01:00,
2013-01-30 10:02:00,54.0,54.0,29.53,SSE,157,7.0,12.0,100,0.00,,RA,0.00,VWS V14.00,2013-01-30 15:02:00,
2013-01-30 10:05:00,54.0,54.0,29.51,SSE,157,9.0,11.0,100,0.00,,RA,0.00,VWS V14.00,2013-01-30 15:05:00,
2013-01-30 10:06:00,54.0,54.0,29.51,SSE,157,6.0,11.0,100,0.00,,RA,0.00,VWS V14.00,2013-01-30 15:06:00,
2013-01-30 10:07:00,54.0,54.0,29.51,SSE,157,5.0,11.0,100,0.00,,RA,0.00,VWS V14.00,2013-01-30 15:07:00,
2013-01-30 10:11:00,54.0,54.0,29.51,South,180,9.0,10.0,100,0.00,,RA,0.00,VWS V14.00,2013-01-30 15:11:00,
2013-01-30 10:12:00,54.0,54.0,29.51,South,180,6.0,11.0,100,0.00,,RA,0.00,VWS V14.00,2013-01-30 15:12:00,
2013-01-30 10:13:00,54.0,55.0,29.51,South,180,8.0,11.0,100,0.00,,RA,0.00,VWS V14.00,2013-01-30 15:13:00,
2013-01-30 10:16:00,55.0,55.0,29.51,South,180,6.0,10.0,100,0.00,,RA,0.00,VWS V14.00,2013-01-30 15:16:00,
2013-01-30 10:17:00,55.0,55.0,29.51,South,180,9.0,13.0,100,0.00,,RA,0.00,VWS V14.00,2013-01-30 15:17:00,
2013-01-30 10:18:00,55.0,55.0,29.51,South,180,10.0,10.0,100,0.00,,RA,0.00,VWS V14.00,2013-01-30 15:18:00,
2013-01-30 10:19:00,55.0,55.0,29.51,SSW,202,10.0,12.0,100,0.00,,RA,0.00,VWS V14.00,2013-01-30 15:19:00,
2013-01-30 10:22:00,55.0,55.0,29.51,SSE,157,11.0,16.0,100,0.00,,RA,0.00,VWS V14.00,2013-01-30 15:22:00,
2013-01-30 10:23:00,55.0,55.0,29.51,South,180,11.0,16.0,100,0.00,,RA,0.00,VWS V14.00,2013-01-30 15:23:00,
2013-01-30 10:25:00,55.0,55.0,29.51,South,180,10.0,16.0,100,0.00,,RA,0.00,VWS V14.00,2013-01-30 15:25:00,
2013-01-30 10:27:00,55.0,55.0,29.51,South,180,9.0,18.0,100,0.00,,RA,0.00,VWS V14.00,2013-01-30 15:27:00,
2013-01-30 10:30:00,55.0,55.0,29.51,SE,135,8.0,16.0,100,0.00,,RA,0.00,VWS V14.00,2013-01-30 15:30:00,
2013-01-30 10:31:00,55.0,55.0,29.51,South,180,8.0,16.0,100,0.00,,RA,0.00,VWS V14.00,2013-01-30 15:31:00,
2013-01-30 10:33:00,55.0,56.0,29.49,SSW,202,16.0,19.0,100,0.00,,RA,0.00,VWS V14.00,2013-01-30 15:33:00,
2013-01-30 10:36:00,56.0,56.0,29.49,South,180,11.0,17.0,100,0.00,,RA,0.00,VWS V14.00,2013-01-30 15:36:00,
2013-01-30 10:37:00,56.0,56.0,29.49,SW,225,11.0,17.0,100,0.00,,RA,0.00,VWS V14.00,2013-01-30 15:37:00,
2013-01-30 10:38:00,56.0,56.0,29.49,SW,225,15.0,15.0,100,0.00,,RA,0.00,VWS V14.00,2013-01-30 15:38:00,
2013-01-30 10:41:00,56.0,56.0,29.49,SSW,202,8.0,15.0,100,0.00,,RA,0.00,VWS V14.00,2013-01-30 15:41:00,
2013-01-30 10:42:00,56.0,56.0,29.49,SSW,202,12.0,15.0,100,0.00,,RA,0.00,VWS V14.00,2013-01-30 15:42:00,
2013-01-30 10:44:00,56.0,56.0,29.49,South,180,9.0,13.0,100,0.00,,RA,0.00,VWS V14.00,2013-01-30 15:44:00,
2013-01-30 10:45:00,56.0,56.0,29.49,South,180,8.0,13.0,100,0.00,,RA,0.00,VWS V14.00,2013-01-30 15:45:00,
2013-01-30 10:48:00,56.0,56.0,29.49,South,180,6.0,9.0,100,0.00,,RA,0.00,VWS V14.00,2013-01-30 15:48:00,
2013-01-30 10:49:00,56.0,56.0,29.49,SW,225,13.0,13.0,100,0.00,,RA,0.00,VWS V14.00,2013-01-30 15:49:00,
2013-01-30 10:50:00,56.0,56.0,29.49,South,180,11.0,14.0,100,0.00,,RA,0.00,VWS V14.00,2013-01-30 15:50:00,
2013-01-30 10:51:00,56.0,56.0,29.49,SSW,202,10.0,14.0,100,0.00,,RA,0.00,VWS V14.00,2013-01-30 15:51:00,
2013-01-30 10:54:00,57.0,57.0,29.51,SSE,157,22.0,22.0,100,0.00,,RA,0.00,VWS V14.00,2013-01-30 15:54:00,
2013-01-30 10:55:00,57.0,57.0,29.51,South,180,18.0,24.0,100,0.00,,RA,0.00,VWS V14.00,2013-01-30 15:55:00,
2013-01-30 10:56:00,57.0,57.0,29.51,South,180,12.0,24.0,100,0.00,,RA,0.00,VWS V14.00,2013-01-30 15:56:00,
2013-01-30 11:01:00,58.0,58.0,29.51,South,180,9.0,24.0,100,0.00,,RA,0.00,VWS V14.00,2013-01-30 16:01:00,
2013-01-30 11:02:00,58.0,58.0,29.51,South,180,17.0,24.0,100,0.00,,RA,0.00,VWS V14.00,2013-01-30 16:02:00,
2013-01-30 11:03:00,58.0,57.7,29.51,SW,225,16.0,23.0,99,0.00,,RA,0.00,VWS V14.00,2013-01-30 16:03:00,
2013-01-30 11:07:00,58.0,58.0,29.51,SW,225,11.0,28.0,100,0.00,,RA,0.00,VWS V14.00,2013-01-30 16:07:00,
2013-01-30 11:08:00,58.0,58.0,29.51,SW,225,11.0,28.0,100,0.00,,RA,0.00,VWS V14.00,2013-01-30 16:08:00,
2013-01-30 11:09:00,58.0,58.0,29.51,SSW,202,11.0,17.0,100,0.00,,RA,0.00,VWS V14.00,2013-01-30 16:09:00,
2013-01-30 11:10:00,58.0,57.7,29.51,SSW,202,18.0,21.0,99,0.00,,RA,0.00,VWS V14.00,2013-01-30 16:10:00,
2013-01-30 11:13:00,58.0,56.9,29.50,SSW,202,19.0,29.0,99,0.00,,RA,0.00,VWS V14.00,2013-01-30 16:13:00,
2013-01-30 11:14:00,58.0,57.4,29.50,SSW,202,16.0,24.0,98,0.00,,RA,0.00,VWS V14.00,2013-01-30 16:14:00,
2013-01-30 11:16:00,58.0,57.7,29.50,SSW,202,12.0,24.0,99,0.00,,RA,0.00,VWS V14.00,2013-01-30 16:16:00,
2013-01-30 11:18:00,58.0,57.7,29.50,South,180,6.0,24.0,99,0.00,,RA,0.00,VWS V14.00,2013-01-30 16:18:00,
2013-01-30 11:19:00,58.0,57.4,29.50,SW,225,11.0,16.0,98,0.00,,RA,0.00,VWS V14.00,2013-01-30 16:19:00,
2013-01-30 11:20:00,58.0,57.4,29.50,SSW,202,16.0,18.0,98,0.00,,RA,0.00,VWS V14.00,2013-01-30 16:20:00,
2013-01-30 11:21:00,58.0,57.2,29.50,SW,225,13.0,23.0,97,0.00,,RA,0.00,VWS V14.00,2013-01-30 16:21:00,
2013-01-30 11:23:00,58.0,56.6,29.50,South,180,12.0,23.0,95,0.00,,RA,0.00,VWS V14.00,2013-01-30 16:23:00,
2013-01-30 11:25:00,58.0,56.9,29.50,SSW,202,13.0,20.0,96,0.00,,RA,0.00,VWS V14.00,2013-01-30 16:25:00,
2013-01-30 11:26:00,58.0,56.9,29.50,South,180,11.0,22.0,96,0.00,,RA,0.00,VWS V14.00,2013-01-30 16:26:00,
2013-01-30 11:27:00,59.0,57.9,29.50,SW,225,18.0,26.0,96,0.00,,RA,0.00,VWS V14.00,2013-01-30 16:27:00,
2013-01-30 11:28:00,59.0,57.6,29.50,SSW,202,17.0,26.0,96,0.00,,RA,0.00,VWS V14.00,2013-01-30 16:28:00,
2013-01-30 11:31:00,59.0,57.6,29.50,South,180,20.0,40.0,95,0.00,,RA,0.00,VWS V14.00,2013-01-30 16:31:00,
2013-01-30 11:32:00,59.0,57.6,29.50,South,180,11.0,40.0,95,0.00,,RA,0.00,VWS V14.00,2013-01-30 16:32:00,
2013-01-30 11:33:00,59.0,57.6,29.50,South,180,18.0,40.0,95,0.00,,RA,0.00,VWS V14.00,2013-01-30 16:33:00,
2013-01-30 11:38:00,59.0,57.3,29.47,South,180,13.0,26.0,95,0.00,,RA,0.00,VWS V14.00,2013-01-30 16:38:00,
2013-01-30 11:39:00,59.0,57.3,29.47,SW,225,11.0,28.0,94,0.00,,RA,0.00,VWS V14.00,2013-01-30 16:39:00,
2013-01-30 11:43:00,59.0,57.3,29.46,South,180,19.0,28.0,94,0.00,,RA,0.00,VWS V14.00,2013-01-30 16:43:00,
2013-01-30 11:44:00,59.0,57.6,29.46,South,180,10.0,19.0,95,0.00,,RA,0.00,VWS V14.00,2013-01-30 16:44:00,
2013-01-30 11:49:00,59.0,57.6,29.46,South,180,15.0,19.0,95,0.00,,RA,0.00,VWS V14.00,2013-01-30 16:49:00,
2013-01-30 11:50:00,59.0,57.3,29.46,South,180,11.0,19.0,94,0.00,,RA,0.00,VWS V14.00,2013-01-30 16:50:00,
2013-01-30 11:55:00,59.0,57.3,29.44,South,180,18.0,24.0,94,0.00,,RA,0.00,VWS V14.00,2013-01-30 16:55:00,
2013-01-30 11:56:00,59.0,57.3,29.44,SSW,202,16.0,24.0,94,0.00,,RA,0.00,VWS V14.00,2013-01-30 16:56:00,
2013-01-30 12:00:00,59.0,57.3,29.44,SSW,202,15.0,23.0,94,0.00,,RA,0.00,VWS V14.00,2013-01-30 17:00:00,
2013-01-30 12:01:00,59.0,57.3,29.44,South,180,15.0,23.0,94,0.00,,RA,0.00,VWS V14.00,2013-01-30 17:01:00,
2013-01-30 12:02:00,59.0,57.3,29.44,SSW,202,17.0,23.0,94,0.00,,RA,0.00,VWS V14.00,2013-01-30 17:02:00,
2013-01-30 12:03:00,59.0,57.0,29.43,South,180,15.0,18.0,93,0.00,,RA,0.00,VWS V14.00,2013-01-30 17:03:00,
2013-01-30 12:06:00,59.0,57.0,29.43,South,180,26.0,26.0,93,0.00,,RA,0.00,VWS V14.00,2013-01-30 17:06:00,
2013-01-30 12:08:00,59.0,57.0,29.43,South,180,16.0,26.0,93,0.00,,RA,0.00,VWS V14.00,2013-01-30 17:08:00,
2013-01-30 12:13:00,59.0,56.7,29.43,South,180,15.0,24.0,92,0.00,,RA,0.00,VWS V14.00,2013-01-30 17:13:00,
2013-01-30 12:14:00,59.0,56.7,29.44,South,180,15.0,26.0,92,0.00,,RA,0.00,VWS V14.00,2013-01-30 17:14:00,
2013-01-30 12:15:00,59.0,56.7,29.44,South,180,13.0,26.0,92,0.00,,RA,0.00,VWS V14.00,2013-01-30 17:15:00,
2013-01-30 12:18:00,59.0,56.1,29.44,South,180,18.0,26.0,91,0.00,,RA,0.00,VWS V14.00,2013-01-30 17:18:00,
2013-01-30 12:19:00,59.0,56.1,29.44,SSE,157,17.0,22.0,90,0.00,,RA,0.00,VWS V14.00,2013-01-30 17:19:00,
2013-01-30 12:20:00,59.0,56.1,29.44,South,180,22.0,23.0,90,0.00,,RA,0.00,VWS V14.00,2013-01-30 17:20:00,
2013-01-30 12:23:00,59.0,56.4,29.42,South,180,16.0,24.0,91,0.00,,OVC110,0.00,VWS V14.00,2013-01-30 17:23:00,
2013-01-30 12:25:00,59.0,56.7,29.42,South,180,16.0,24.0,92,0.00,,OVC110,0.00,VWS V14.00,2013-01-30 17:25:00,
2013-01-30 12:27:00,59.0,56.7,29.42,South,180,24.0,30.0,92,0.00,,OVC110,0.00,VWS V14.00,2013-01-30 17:27:00,
2013-01-30 12:29:00,59.0,56.7,29.42,South,180,18.0,28.0,92,0.00,,OVC110,0.00,VWS V14.00,2013-01-30 17:29:00,
2013-01-30 12:31:00,59.0,56.7,29.42,SW,225,10.0,28.0,92,0.00,,OVC110,0.00,VWS V14.00,2013-01-30 17:31:00,
2013-01-30 12:32:00,59.0,56.7,29.42,South,180,14.0,28.0,92,0.00,,OVC110,0.00,VWS V14.00,2013-01-30 17:32:00,
2013-01-30 12:33:00,59.0,56.7,29.42,SSW,202,18.0,28.0,92,0.00,,OVC110,0.00,VWS V14.00,2013-01-30 17:33:00,
2013-01-30 12:34:00,59.0,56.7,29.41,South,180,14.0,21.0,92,0.00,,OVC110,0.00,VWS V14.00,2013-01-30 17:34:00,
2013-01-30 12:36:00,59.0,56.7,29.41,South,180,18.0,25.0,92,0.00,,OVC110,0.00,VWS V14.00,2013-01-30 17:36:00,
2013-01-30 12:37:00,59.0,56.7,29.41,South,180,19.0,29.0,92,0.00,,OVC110,0.00,VWS V14.00,2013-01-30 17:37:00,
2013-01-30 12:38:00,59.0,56.7,29.41,South,180,17.0,29.0,92,0.00,,OVC110,0.00,VWS V14.00,2013-01-30 17:38:00,
2013-01-30 12:39:00,59.0,56.7,29.41,South,180,16.0,23.0,92,0.00,,OVC110,0.00,VWS V14.00,2013-01-30 17:39:00,
2013-01-30 12:41:00,59.0,56.7,29.41,SW,225,12.0,23.0,92,0.00,,OVC110,0.00,VWS V14.00,2013-01-30 17:41:00,
2013-01-30 12:43:00,59.0,56.4,29.42,SSW,202,16.0,25.0,91,0.00,,OVC110,0.00,VWS V14.00,2013-01-30 17:43:00,
2013-01-30 12:44:00,59.0,56.1,29.42,SSW,202,20.0,26.0,90,0.00,,OVC110,0.00,VWS V14.00,2013-01-30 17:44:00,
2013-01-30 12:45:00,59.0,56.1,29.42,South,180,24.0,34.0,90,0.00,,OVC110,0.00,VWS V14.00,2013-01-30 17:45:00,
2013-01-30 12:48:00,59.0,56.1,29.42,South,180,21.0,21.0,90,0.00,,OVC110,0.00,VWS V14.00,2013-01-30 17:48:00,
2013-01-30 12:50:00,59.0,56.1,29.42,South,180,16.0,24.0,90,0.00,,OVC110,0.00,VWS V14.00,2013-01-30 17:50:00,
2013-01-30 12:53:00,59.0,56.1,29.43,South,180,20.0,20.0,90,0.00,,OVC110,0.00,VWS V14.00,2013-01-30 17:53:00,
2013-01-30 12:55:00,59.0,56.4,29.43,South,180,12.0,24.0,91,0.00,,OVC110,0.00,VWS V14.00,2013-01-30 17:55:00,
2013-01-30 12:56:00,59.0,56.4,29.43,South,180,10.0,24.0,91,0.00,,OVC110,0.00,VWS V14.00,2013-01-30 17:56:00,
2013-01-30 12:58:00,59.0,56.1,29.43,South,180,18.0,32.0,90,0.00,,OVC110,0.00,VWS V14.00,2013-01-30 17:58:00,
2013-01-30 13:00:00,59.0,56.1,29.43,South,180,16.0,32.0,90,0.00,,OVC110,0.00,VWS V14.00,2013-01-30 18:00:00,
2013-01-30 13:01:00,59.0,56.1,29.43,South,180,11.0,32.0,90,0.00,,OVC110,0.00,VWS V14.00,2013-01-30 18:01:00,
2013-01-30 13:02:00,59.0,55.8,29.43,SSW,202,9.0,32.0,89,0.00,,OVC250,0.00,VWS V14.00,2013-01-30 18:02:00,
2013-01-30 13:04:00,59.0,56.1,29.40,South,180,17.0,21.0,90,0.00,,OVC250,0.00,VWS V14.00,2013-01-30 18:04:00,
2013-01-30 13:06:00,59.0,56.1,29.40,South,180,10.0,21.0,90,0.00,,OVC250,0.00,VWS V14.00,2013-01-30 18:06:00,
2013-01-30 13:08:00,59.0,55.8,29.40,SSW,202,13.0,19.0,89,0.00,,OVC250,0.00,VWS V14.00,2013-01-30 18:08:00,
2013-01-30 13:10:00,59.0,55.8,29.40,South,180,14.0,21.0,90,0.00,,OVC250,0.00,VWS V14.00,2013-01-30 18:10:00,
2013-01-30 13:12:00,59.0,55.8,29.40,South,180,13.0,24.0,89,0.00,,OVC250,0.00,VWS V14.00,2013-01-30 18:12:00,
2013-01-30 13:13:00,59.0,55.8,29.40,South,180,10.0,24.0,89,0.00,,OVC250,0.00,VWS V14.00,2013-01-30 18:13:00,
2013-01-30 13:14:00,59.0,55.8,29.40,South,180,21.0,25.0,89,0.00,,OVC250,0.00,VWS V14.00,2013-01-30 18:14:00,
2013-01-30 13:16:00,59.0,55.8,29.40,SSW,202,16.0,29.0,89,0.00,,OVC250,0.00,VWS V14.00,2013-01-30 18:16:00,
2013-01-30 13:18:00,59.0,55.5,29.40,South,180,15.0,29.0,89,0.00,,OVC250,0.00,VWS V14.00,2013-01-30 18:18:00,
2013-01-30 13:19:00,59.0,55.5,29.40,SSW,202,9.0,22.0,88,0.00,,OVC250,0.00,VWS V14.00,2013-01-30 18:19:00,
2013-01-30 13:21:00,59.0,55.8,29.40,SSW,202,16.0,24.0,89,0.00,,OVC250,0.00,VWS V14.00,2013-01-30 18:21:00,
2013-01-30 13:23:00,59.0,55.5,29.41,South,180,13.0,24.0,88,0.00,,OVC250,0.00,VWS V14.00,2013-01-30 18:23:00,
2013-01-30 13:24:00,59.0,55.5,29.41,South,180,13.0,23.0,88,0.00,,OVC250,0.00,VWS V14.00,2013-01-30 18:24:00,
2013-01-30 13:28:00,59.0,55.1,29.41,South,180,11.0,26.0,87,0.00,,OVC250,0.00,VWS V14.00,2013-01-30 18:28:00,
2013-01-30 13:30:00,59.0,55.1,29.41,SW,225,16.0,24.0,87,0.00,,OVC250,0.00,VWS V14.00,2013-01-30 18:30:00,
2013-01-30 13:31:00,59.0,55.1,29.41,SW,225,16.0,24.0,87,0.00,,OVC250,0.00,VWS V14.00,2013-01-30 18:31:00,
2013-01-30 13:33:00,59.0,54.8,29.44,South,180,15.0,26.0,86,0.00,,OVC250,0.00,VWS V14.00,2013-01-30 18:33:00,
2013-01-30 13:35:00,59.0,54.5,29.44,West,270,18.0,21.0,85,0.00,,OVC250,0.00,VWS V14.00,2013-01-30 18:35:00,
2013-01-30 13:36:00,59.0,54.5,29.44,West,270,15.0,22.0,85,0.00,,OVC250,0.00,VWS V14.00,2013-01-30 18:36:00,
2013-01-30 13:37:00,56.0,49.6,29.44,West,270,19.0,23.0,79,0.00,,OVC250,0.00,VWS V14.00,2013-01-30 18:37:00,
2013-01-30 13:38:00,56.0,48.0,29.44,WSW,247,16.0,24.0,79,0.00,,OVC250,0.00,VWS V14.00,2013-01-30 18:38:00,
2013-01-30 13:40:00,52.0,50.0,29.44,WSW,247,15.0,26.0,93,0.00,,OVC250,0.00,VWS V14.00,2013-01-30 18:40:00,
2013-01-30 13:41:00,54.0,52.6,29.44,WSW,247,19.0,26.0,95,0.00,,OVC250,0.00,VWS V14.00,2013-01-30 18:41:00,
2013-01-30 13:43:00,54.0,51.4,29.44,SW,225,20.0,26.0,91,0.00,,OVC250,0.00,VWS V14.00,2013-01-30 18:43:00,
2013-01-30 13:47:00,56.0,52.8,29.46,SW,225,13.0,20.0,89,0.00,,OVC250,0.00,VWS V14.00,2013-01-30 18:47:00,
2013-01-30 13:48:00,56.0,53.1,29.46,WSW,247,11.0,20.0,90,0.00,,OVC250,0.00,VWS V14.00,2013-01-30 18:48:00,
2013-01-30 13:52:00,56.0,52.8,29.46,SW,225,12.0,16.0,89,0.00,,OVC250,0.00,VWS V14.00,2013-01-30 18:52:00,
2013-01-30 13:53:00,56.0,53.8,29.45,SSW,202,9.0,16.0,89,0.00,,OVC250,0.00,VWS V14.00,2013-01-30 18:53:00,
2013-01-30 13:55:00,56.0,52.5,29.45,West,270,11.0,13.0,88,0.00,,OVC250,0.00,VWS V14.00,2013-01-30 18:55:00,
2013-01-30 13:57:00,56.0,52.5,29.45,WSW,247,8.0,15.0,88,0.00,,OVC250,0.00,VWS V14.00,2013-01-30 18:57:00,
2013-01-30 13:58:00,55.0,51.5,29.45,SW,225,8.0,11.0,88,0.00,,OVC250,0.00,VWS V14.00,2013-01-30 18:58:00,
2013-01-30 14:00:00,55.0,51.8,29.45,WSW,247,8.0,11.0,89,0.00,,OVC250,0.00,VWS V14.00,2013-01-30 19:00:00,
2013-01-30 14:01:00,55.0,52.1,29.45,SW,225,5.0,11.0,90,0.00,,OVC250,0.00,VWS V14.00,2013-01-30 19:01:00,
2013-01-30 14:02:00,55.0,52.4,29.45,SW,225,5.0,11.0,91,0.00,,OVC250,0.00,VWS V14.00,2013-01-30 19:02:00,
2013-01-30 14:03:00,55.0,51.5,29.46,SW,225,6.0,8.0,88,0.00,,OVC250,0.00,VWS V14.00,2013-01-30 19:03:00,
2013-01-30 14:07:00,54.0,50.8,29.46,SW,225,6.0,9.0,89,0.00,,OVC250,0.00,VWS V14.00,2013-01-30 19:07:00,
2013-01-30 14:09:00,53.0,49.5,29.46,SW,225,7.0,9.0,88,0.00,,OVC250,0.00,VWS V14.00,2013-01-30 19:09:00,
2013-01-30 14:10:00,54.0,52.0,29.46,SW,225,5.0,9.0,93,0.00,,OVC250,0.00,VWS V14.00,2013-01-30 19:10:00,
2013-01-30 14:12:00,54.0,52.3,29.46,SSW,202,8.0,9.0,94,0.00,,OVC250,0.00,VWS V14.00,2013-01-30 19:12:00,
2013-01-30 14:13:00,54.0,52.3,29.46,South,180,6.0,9.0,94,0.00,,OVC250,0.00,VWS V14.00,2013-01-30 19:13:00,
2013-01-30 14:14:00,55.0,53.3,29.45,SSW,202,5.0,8.0,94,0.00,,OVC250,0.00,VWS V14.00,2013-01-30 19:14:00,
2013-01-30 14:15:00,55.0,53.3,29.45,SW,225,6.0,8.0,94,0.00,,OVC250,0.00,VWS V14.00,2013-01-30 19:15:00,
2013-01-30 14:17:00,55.0,54.3,29.45,SSW,202,3.0,8.0,94,0.00,,OVC250,0.00,VWS V14.00,2013-01-30 19:17:00,
2013-01-30 14:19:00,56.0,54.3,29.45,South,180,6.0,6.0,94,0.00,,OVC250,0.00,VWS V14.00,2013-01-30 19:19:00,
2013-01-30 14:20:00,56.0,55.0,29.45,SSW,202,10.0,11.0,94,0.00,,OVC250,0.00,VWS V14.00,2013-01-30 19:20:00,
2013-01-30 14:21:00,57.0,54.7,29.45,SSW,202,8.0,11.0,93,0.00,,OVC250,0.00,VWS V14.00,2013-01-30 19:21:00,
2013-01-30 14:22:00,57.0,54.4,29.45,SW,225,8.0,11.0,91,0.00,,OVC250,0.00,VWS V14.00,2013-01-30 19:22:00,
2013-01-30 14:25:00,58.0,54.8,29.44,South,180,10.0,16.0,89,0.00,,OVC250,0.00,VWS V14.00,2013-01-30 19:25:00,
2013-01-30 14:26:00,58.0,54.5,29.44,SSW,202,12.0,16.0,88,0.00,,OVC250,0.00,VWS V14.00,2013-01-30 19:26:00,
2013-01-30 14:28:00,58.0,53.8,29.44,SSW,202,13.0,20.0,86,0.00,,OVC250,0.00,VWS V14.00,2013-01-30 19:28:00,
2013-01-30 14:30:00,58.0,53.5,29.44,SSW,202,10.0,18.0,85,0.00,,OVC250,0.00,VWS V14.00,2013-01-30 19:30:00,
2013-01-30 14:32:00,59.0,54.2,29.44,SW,225,15.0,18.0,84,0.00,,OVC250,0.00,VWS V14.00,2013-01-30 19:32:00,
2013-01-30 14:34:00,59.0,54.2,29.46,SW,225,17.0,20.0,84,0.00,,OVC250,0.00,VWS V14.00,2013-01-30 19:34:00,
2013-01-30 14:36:00,59.0,53.8,29.46,SSW,202,14.0,20.0,83,0.00,,OVC250,0.00,VWS V14.00,2013-01-30 19:36:00,
2013-01-30 14:37:00,59.0,53.8,29.46,SW,225,11.0,20.0,83,0.00,,OVC250,0.00,VWS V14.00,2013-01-30 19:37:00,
2013-01-30 14:38:00,59.0,53.8,29.46,SW,225,13.0,15.0,83,0.00,,OVC250,0.00,VWS V14.00,2013-01-30 19:38:00,
2013-01-30 14:40:00,59.0,53.5,29.46,SW,225,20.0,20.0,83,0.00,,OVC250,0.00,VWS V14.00,2013-01-30 19:40:00,
2013-01-30 14:41:00,59.0,53.2,29.46,SW,225,18.0,24.0,81,0.00,,OVC250,0.00,VWS V14.00,2013-01-30 19:41:00,
2013-01-30 14:43:00,59.0,54.5,29.46,South,180,13.0,24.0,81,0.00,,OVC250,0.00,VWS V14.00,2013-01-30 19:43:00,
2013-01-30 14:44:00,59.0,53.5,29.46,SW,225,9.0,16.0,82,0.00,,OVC250,0.00,VWS V14.00,2013-01-30 19:44:00,
2013-01-30 14:45:00,59.0,53.5,29.46,SW,225,18.0,24.0,82,0.00,,OVC250,0.00,VWS V14.00,2013-01-30 19:45:00,
2013-01-30 14:48:00,59.0,53.5,29.46,SSW,202,10.0,24.0,82,0.00,,OVC250,0.00,VWS V14.00,2013-01-30 19:48:00,
2013-01-30 14:50:00,59.0,54.2,29.46,SSW,202,16.0,24.0,82,0.00,,OVC250,0.00,VWS V14.00,2013-01-30 19:50:00,
2013-01-30 14:51:00,60.0,54.2,29.46,SW,225,16.0,24.0,81,0.00,,OVC250,0.00,VWS V14.00,2013-01-30 19:51:00,
2013-01-30 14:53:00,60.0,54.2,29.46,SW,225,14.0,15.0,81,0.00,,OVC250,0.00,VWS V14.00,2013-01-30 19:53:00,
2013-01-30 14:57:00,59.0,53.5,29.46,SSW,202,13.0,20.0,82,0.00,,OVC250,0.00,VWS V14.00,2013-01-30 19:57:00,
2013-01-30 14:58:00,60.0,53.8,29.46,SW,225,13.0,20.0,80,0.00,,OVC250,0.00,VWS V14.00,2013-01-30 19:58:00,
2013-01-30 15:02:00,59.0,52.8,29.46,SW,225,10.0,20.0,80,0.00,,OVC250,0.00,VWS V14.00,2013-01-30 20:02:00,
2013-01-30 15:03:00,59.0,53.8,29.45,South,180,18.0,20.0,80,0.00,,OVC250,0.00,VWS V14.00,2013-01-30 20:03:00,
2013-01-30 15:08:00,59.0,53.2,29.45,SW,225,12.0,28.0,81,0.00,,OVC250,0.00,VWS V14.00,2013-01-30 20:08:00,
2013-01-30 15:10:00,59.0,53.2,29.45,SW,225,14.0,16.0,81,0.00,,OVC250,0.00,VWS V14.00,2013-01-30 20:10:00,
2013-01-30 15:13:00,59.0,53.2,29.44,West,270,8.0,11.0,81,0.00,,OVC250,0.00,VWS V14.00,2013-01-30 20:13:00,
2013-01-30 15:14:00,59.0,53.5,29.44,SW,225,13.0,13.0,82,0.00,,OVC250,0.00,VWS V14.00,2013-01-30 20:14:00,
2013-01-30 15:16:00,59.0,53.5,29.44,SW,225,18.0,21.0,82,0.00,,OVC250,0.00,VWS V14.00,2013-01-30 20:16:00,
2013-01-30 15:18:00,59.0,53.2,29.44,SW,225,16.0,21.0,81,0.00,,OVC250,0.00,VWS V14.00,2013-01-30 20:18:00,
2013-01-30 15:19:00,59.0,53.5,29.44,SW,225,11.0,21.0,82,0.00,,OVC250,0.00,VWS V14.00,2013-01-30 20:19:00,
2013-01-30 15:20:00,59.0,53.5,29.44,SSW,202,21.0,25.0,82,0.00,,OVC250,0.00,VWS V14.00,2013-01-30 20:20:00,
2013-01-30 15:22:00,59.0,53.5,29.44,SW,225,14.0,25.0,82,0.00,,OVC250,0.00,VWS V14.00,2013-01-30 20:22:00,
2013-01-30 15:25:00,59.0,53.5,29.44,SW,225,24.0,26.0,82,0.00,,OVC250,0.00,VWS V14.00,2013-01-30 20:25:00,
2013-01-30 15:26:00,59.0,53.5,29.44,SSW,202,22.0,31.0,82,0.00,,OVC250,0.00,VWS V14.00,2013-01-30 20:26:00,
2013-01-30 15:28:00,59.0,53.5,29.44,SW,225,10.0,31.0,82,0.00,,OVC250,0.00,VWS V14.00,2013-01-30 20:28:00,
2013-01-30 15:31:00,59.0,53.5,29.44,SW,225,17.0,21.0,82,0.00,,OVC250,0.00,VWS V14.00,2013-01-30 20:31:00,
2013-01-30 15:32:00,59.0,53.5,29.44,South,180,14.0,21.0,82,0.00,,OVC250,0.00,VWS V14.00,2013-01-30 20:32:00,
2013-01-30 15:33:00,59.0,53.5,29.44,SW,225,13.0,21.0,82,0.00,,OVC250,0.00,VWS V14.00,2013-01-30 20:33:00,
2013-01-30 15:37:00,59.0,53.5,29.44,SSW,202,18.0,31.0,82,0.00,,OVC250,0.00,VWS V14.00,2013-01-30 20:37:00,
2013-01-30 15:38:00,59.0,53.5,29.44,SW,225,13.0,31.0,82,0.00,,OVC250,0.00,VWS V14.00,2013-01-30 20:38:00,
2013-01-30 15:42:00,59.0,53.8,29.44,South,180,11.0,20.0,83,0.00,,OVC250,0.00,VWS V14.00,2013-01-30 20:42:00,
2013-01-30 15:43:00,59.0,53.8,29.44,SW,225,13.0,20.0,83,0.00,,OVC250,0.00,VWS V14.00,2013-01-30 20:43:00,
2013-01-30 15:47:00,59.0,53.8,29.42,South,180,20.0,20.0,84,0.00,,OVC250,0.00,VWS V14.00,2013-01-30 20:47:00,
2013-01-30 15:48:00,59.0,53.8,29.42,South,180,10.0,20.0,83,0.00,,OVC250,0.00,VWS V14.00,2013-01-30 20:48:00,
2013-01-30 15:49:00,59.0,53.8,29.42,SW,225,13.0,21.0,83,0.00,,OVC250,0.00,VWS V14.00,2013-01-30 20:49:00,
2013-01-30 15:50:00,59.0,53.8,29.42,SW,225,16.0,21.0,83,0.00,,OVC250,0.00,VWS V14.00,2013-01-30 20:50:00,
2013-01-30 15:52:00,59.0,53.5,29.42,SW,225,22.0,24.0,82,0.00,,OVC250,0.00,VWS V14.00,2013-01-30 20:52:00,
2013-01-30 15:53:00,59.0,53.5,29.43,SW,225,16.0,24.0,82,0.00,,OVC250,0.00,VWS V14.00,2013-01-30 20:53:00,
2013-01-30 15:55:00,59.0,53.8,29.43,SW,225,16.0,20.0,83,0.00,,OVC250,0.00,VWS V14.00,2013-01-30 20:55:00,
2013-01-30 15:58:00,59.0,54.2,29.43,SW,225,16.0,23.0,83,0.00,,OVC250,0.00,VWS V14.00,2013-01-30 20:58:00,
2013-01-30 16:00:00,59.0,53.8,29.43,SW,225,18.0,23.0,83,0.00,,OVC250,0.00,VWS V14.00,2013-01-30 21:00:00,
2013-01-30 16:01:00,58.0,52.9,29.43,South,180,11.0,23.0,83,0.00,,OVC110,0.00,VWS V14.00,2013-01-30 21:01:00,
2013-01-30 16:03:00,59.0,54.2,29.44,SW,225,13.0,13.0,84,0.00,,OVC110,0.00,VWS V14.00,2013-01-30 21:03:00,
2013-01-30 16:07:00,58.0,52.9,29.44,South,180,10.0,20.0,83,0.00,,OVC110,0.00,VWS V14.00,2013-01-30 21:07:00,
2013-01-30 16:09:00,58.0,52.9,29.44,South,180,12.0,20.0,83,0.00,,OVC110,0.00,VWS V14.00,2013-01-30 21:09:00,
2013-01-30 16:10:00,58.0,52.9,29.44,SW,225,13.0,20.0,83,0.00,,OVC110,0.00,VWS V14.00,2013-01-30 21:10:00,
2013-01-30 16:12:00,58.0,52.9,29.44,SSW,202,13.0,23.0,83,0.00,,OVC110,0.00,VWS V14.00,2013-01-30 21:12:00,
2013-01-30 16:13:00,58.0,52.9,29.44,SSW,202,10.0,23.0,83,0.00,,OVC110,0.00,VWS V14.00,2013-01-30 21:13:00,
2013-01-30 16:15:00,58.0,52.9,29.43,SW,225,18.0,27.0,83,0.00,,OVC110,0.00,VWS V14.00,2013-01-30 21:15:00,
2013-01-30 16:18:00,58.0,53.2,29.43,South,180,13.0,27.0,84,0.00,,OVC110,0.00,VWS V14.00,2013-01-30 21:18:00,
2013-01-30 16:19:00,58.0,53.2,29.43,SW,225,11.0,14.0,84,0.00,,OVC110,0.00,VWS V14.00,2013-01-30 21:19:00,
2013-01-30 16:21:00,58.0,52.9,29.43,SW,225,17.0,23.0,83,0.00,,OVC110,0.00,VWS V14.00,2013-01-30 21:21:00,
2013-01-30 16:23:00,58.0,52.9,29.43,SW,225,21.0,23.0,83,0.00,,OVC110,0.00,VWS V14.00,2013-01-30 21:23:00,
2013-01-30 16:24:00,58.0,52.9,29.41,SW,225,11.0,16.0,83,0.00,,OVC110,0.00,VWS V14.00,2013-01-30 21:24:00,
2013-01-30 16:25:00,58.0,52.9,29.41,SW,225,16.0,20.0,83,0.00,,OVC110,0.00,VWS V14.00,2013-01-30 21:25:00,
2013-01-30 16:26:00,58.0,52.9,29.41,SSW,202,11.0,20.0,83,0.00,,OVC110,0.00,VWS V14.00,2013-01-30 21:26:00,
2013-01-30 16:29:00,58.0,52.9,29.41,SW,225,13.0,16.0,83,0.00,,OVC110,0.00,VWS V14.00,2013-01-30 21:29:00,
2013-01-30 16:30:00,58.0,53.2,29.41,SW,225,12.0,16.0,84,0.00,,OVC110,0.00,VWS V14.00,2013-01-30 21:30:00,
2013-01-30 16:31:00,58.0,53.2,29.41,SW,225,13.0,17.0,84,0.00,,OVC110,0.00,VWS V14.00,2013-01-30 21:31:00,
2013-01-30 16:35:00,58.0,53.2,29.41,SW,225,11.0,18.0,84,0.00,,OVC110,0.00,VWS V14.00,2013-01-30 21:35:00,
2013-01-30 16:36:00,58.0,53.2,29.41,SW,225,10.0,18.0,84,0.00,,OVC110,0.00,VWS V14.00,2013-01-30 21:36:00,
2013-01-30 16:37:00,58.0,53.2,29.41,SW,225,10.0,18.0,84,0.00,,OVC110,0.00,VWS V14.00,2013-01-30 21:37:00,
2013-01-30 16:41:00,58.0,53.2,29.41,SW,225,11.0,24.0,84,0.00,,OVC110,0.00,VWS V14.00,2013-01-30 21:41:00,
2013-01-30 16:42:00,58.0,53.2,29.41,SSW,202,14.0,27.0,84,0.00,,OVC110,0.00,VWS V14.00,2013-01-30 21:42:00,
2013-01-30 16:43:00,58.0,53.2,29.43,SW,225,11.0,13.0,84,0.00,,OVC110,0.00,VWS V14.00,2013-01-30 21:43:00,
2013-01-30 16:44:00,58.0,53.2,29.43,SW,225,10.0,15.0,84,0.00,,OVC110,0.00,VWS V14.00,2013-01-30 21:44:00,
2013-01-30 16:47:00,58.0,53.5,29.43,South,180,8.0,21.0,85,0.00,,OVC110,0.00,VWS V14.00,2013-01-30 21:47:00,
2013-01-30 16:48:00,58.0,53.5,29.43,SW,225,5.0,17.0,85,0.00,,OVC110,0.00,VWS V14.00,2013-01-30 21:48:00,
2013-01-30 16:49:00,58.0,53.5,29.43,SSW,202,7.0,17.0,85,0.00,,OVC110,0.00,VWS V14.00,2013-01-30 21:49:00,
2013-01-30 16:50:00,58.0,53.5,29.43,SSW,202,14.0,24.0,85,0.00,,OVC110,0.00,VWS V14.00,2013-01-30 21:50:00,
2013-01-30 16:52:00,58.0,53.2,29.43,SW,225,16.0,24.0,84,0.00,,OVC110,0.00,VWS V14.00,2013-01-30 21:52:00,
2013-01-30 16:55:00,58.0,53.5,29.41,SSW,202,16.0,20.0,85,0.00,,OVC110,0.00,VWS V14.00,2013-01-30 21:55:00,
2013-01-30 16:56:00,58.0,53.5,29.41,SSW,202,16.0,20.0,85,0.00,,OVC110,0.00,VWS V14.00,2013-01-30 21:56:00,
2013-01-30 17:00:00,58.0,53.2,29.41,SSW,202,16.0,28.0,84,0.00,,OVC110,0.00,VWS V14.00,2013-01-30 22:00:00,
2013-01-30 17:01:00,58.0,53.2,29.41,SSW,202,12.0,28.0,84,0.00,,OVC110,0.00,VWS V14.00,2013-01-30 22:01:00,
2013-01-30 17:05:00,58.0,53.2,29.41,SW,225,12.0,20.0,84,0.00,,OVC045,0.00,VWS V14.00,2013-01-30 22:05:00,
2013-01-30 17:07:00,58.0,53.5,29.41,SW,225,11.0,20.0,85,0.00,,OVC045,0.00,VWS V14.00,2013-01-30 22:07:00,
2013-01-30 17:10:00,58.0,53.5,29.41,SW,225,13.0,23.0,85,0.00,,OVC045,0.00,VWS V14.00,2013-01-30 22:10:00,
2013-01-30 17:12:00,58.0,53.5,29.41,SSW,202,18.0,24.0,85,0.00,,OVC045,0.00,VWS V14.00,2013-01-30 22:12:00,
2013-01-30 17:13:00,58.0,53.5,29.39,SW,225,20.0,20.0,85,0.00,,OVC045,0.00,VWS V14.00,2013-01-30 22:13:00,
2013-01-30 17:16:00,58.0,53.8,29.39,SSW,202,14.0,20.0,86,0.00,,OVC045,0.00,VWS V14.00,2013-01-30 22:16:00,
2013-01-30 17:18:00,58.0,53.8,29.39,SSW,202,10.0,12.0,86,0.00,,OVC045,0.00,VWS V14.00,2013-01-30 22:18:00,
2013-01-30 17:19:00,58.0,53.8,29.39,SSW,202,8.0,13.0,86,0.00,,OVC045,0.00,VWS V14.00,2013-01-30 22:19:00,
2013-01-30 17:22:00,58.0,53.8,29.39,SW,225,10.0,20.0,86,0.00,,OVC045,0.00,VWS V14.00,2013-01-30 22:22:00,
2013-01-30 17:23:00,58.0,53.8,29.40,SW,225,13.0,15.0,86,0.00,,OVC045,0.00,VWS V14.00,2013-01-30 22:23:00,
2013-01-30 17:24:00,58.0,53.8,29.40,SSW,202,10.0,16.0,86,0.00,,OVC045,0.00,VWS V14.00,2013-01-30 22:24:00,
2013-01-30 17:25:00,58.0,53.8,29.40,South,180,7.0,16.0,86,0.00,,OVC045,0.00,VWS V14.00,2013-01-30 22:25:00,
2013-01-30 17:27:00,58.0,54.2,29.40,SW,225,10.0,18.0,87,0.00,,OVC045,0.00,VWS V14.00,2013-01-30 22:27:00,
2013-01-30 17:29:00,58.0,53.8,29.40,South,180,13.0,17.0,86,0.00,,OVC045,0.00,VWS V14.00,2013-01-30 22:29:00,
2013-01-30 17:30:00,58.0,53.8,29.40,SW,225,15.0,20.0,86,0.00,,OVC045,0.00,VWS V14.00,2013-01-30 22:30:00,
2013-01-30 17:33:00,57.0,53.2,29.40,SW,225,6.0,20.0,87,0.00,,OVC045,0.00,VWS V14.00,2013-01-30 22:33:00,
2013-01-30 17:34:00,57.0,53.5,29.39,SW,225,9.0,14.0,88,0.00,,OVC045,0.00,VWS V14.00,2013-01-30 22:34:00,
2013-01-30 17:35:00,57.0,53.2,29.39,SW,225,19.0,21.0,88,0.00,,OVC045,0.00,VWS V14.00,2013-01-30 22:35:00,
2013-01-30 17:36:00,57.0,53.2,29.39,South,180,12.0,21.0,87,0.00,,OVC045,0.00,VWS V14.00,2013-01-30 22:36:00,
2013-01-30 17:38:00,57.0,53.2,29.39,SW,225,15.0,21.0,87,0.00,,OVC045,0.00,VWS V14.00,2013-01-30 22:38:00,
2013-01-30 17:40:00,57.0,53.5,29.39,WSW,247,15.0,24.0,88,0.00,,OVC045,0.00,VWS V14.00,2013-01-30 22:40:00,
2013-01-30 17:42:00,57.0,53.5,29.39,SSW,202,15.0,24.0,88,0.00,,OVC045,0.00,VWS V14.00,2013-01-30 22:42:00,
2013-01-30 17:43:00,57.0,53.5,29.39,South,180,9.0,24.0,88,0.00,,OVC045,0.00,VWS V14.00,2013-01-30 22:43:00,
2013-01-30 17:45:00,57.0,53.5,29.39,SSW,202,9.0,18.0,88,0.00,,OVC045,0.00,VWS V14.00,2013-01-30 22:45:00,
2013-01-30 17:48:00,57.0,53.8,29.39,South,180,12.0,18.0,89,0.00,,OVC045,0.00,VWS V14.00,2013-01-30 22:48:00,
2013-01-30 17:50:00,57.0,53.8,29.39,SW,225,11.0,16.0,89,0.00,,OVC045,0.00,VWS V14.00,2013-01-30 22:50:00,
2013-01-30 17:54:00,57.0,53.8,29.37,South,180,8.0,20.0,89,0.00,,OVC045,0.00,VWS V14.00,2013-01-30 22:54:00,
2013-01-30 17:56:00,57.0,53.8,29.37,South,180,8.0,20.0,89,0.00,,OVC045,0.00,VWS V14.00,2013-01-30 22:56:00,
2013-01-30 17:59:00,57.0,53.8,29.37,South,180,10.0,11.0,89,0.00,,OVC045,0.00,VWS V14.00,2013-01-30 22:59:00,
2013-01-30 18:01:00,57.0,53.8,29.37,South,180,13.0,23.0,89,0.00,,OVC060,0.00,VWS V14.00,2013-01-30 23:01:00,
2013-01-30 18:04:00,57.0,53.8,29.38,South,180,10.0,19.0,89,0.00,,OVC060,0.00,VWS V14.00,2013-01-30 23:04:00,
2013-01-30 18:05:00,57.0,53.8,29.38,South,180,12.0,19.0,89,0.00,,OVC060,0.00,VWS V14.00,2013-01-30 23:05:00,
2013-01-30 18:07:00,57.0,53.8,29.38,SSW,202,18.0,23.0,89,0.00,,OVC060,0.00,VWS V14.00,2013-01-30 23:07:00,
2013-01-30 18:10:00,57.0,53.8,29.38,SW,225,15.0,20.0,89,0.00,,OVC060,0.00,VWS V14.00,2013-01-30 23:10:00,
2013-01-30 18:11:00,57.0,53.8,29.38,SW,225,9.0,20.0,89,0.00,,OVC060,0.00,VWS V14.00,2013-01-30 23:11:00,
2013-01-30 18:12:00,57.0,53.8,29.38,SSW,202,20.0,20.0,89,0.00,,OVC060,0.00,VWS V14.00,2013-01-30 23:12:00,
2013-01-30 18:16:00,57.0,54.1,29.40,South,180,15.0,16.0,90,0.00,,OVC060,0.00,VWS V14.00,2013-01-30 23:16:00,
2013-01-30 18:17:00,57.0,54.1,29.40,SW,225,8.0,16.0,90,0.00,,OVC060,0.00,VWS V14.00,2013-01-30 23:17:00,
2013-01-30 18:18:00,57.0,54.1,29.40,SSW,202,13.0,17.0,90,0.00,,OVC060,0.00,VWS V14.00,2013-01-30 23:18:00,
2013-01-30 18:21:00,57.0,54.4,29.40,SW,225,10.0,18.0,91,0.00,,OVC060,0.00,VWS V14.00,2013-01-30 23:21:00,
2013-01-30 18:22:00,57.0,54.4,29.40,SW,225,11.0,18.0,91,0.00,,OVC060,0.00,VWS V14.00,2013-01-30 23:22:00,
2013-01-30 18:23:00,57.0,54.4,29.40,SW,225,13.0,18.0,91,0.00,,OVC060,0.00,VWS V14.00,2013-01-30 23:23:00,
2013-01-30 18:27:00,57.0,54.4,29.38,SW,225,10.0,18.0,91,0.00,,OVC060,0.00,VWS V14.00,2013-01-30 23:27:00,
2013-01-30 18:28:00,57.0,54.4,29.38,SW,225,10.0,18.0,91,0.00,,OVC060,0.00,VWS V14.00,2013-01-30 23:28:00,
2013-01-30 18:33:00,57.0,54.4,29.38,South,180,8.0,20.0,91,0.00,,OVC060,0.00,VWS V14.00,2013-01-30 23:33:00,
2013-01-30 18:34:00,57.0,54.4,29.37,SSW,202,15.0,16.0,91,0.00,,OVC060,0.00,VWS V14.00,2013-01-30 23:34:00,
2013-01-30 18:35:00,57.0,54.4,29.37,SW,225,12.0,16.0,91,0.00,,OVC060,0.00,VWS V14.00,2013-01-30 23:35:00,
2013-01-30 18:38:00,57.0,54.4,29.37,SSW,202,10.0,11.0,91,0.00,,OVC060,0.00,VWS V14.00,2013-01-30 23:38:00,
2013-01-30 18:40:00,57.0,54.4,29.37,SSW,202,8.0,16.0,91,0.00,,OVC060,0.00,VWS V14.00,2013-01-30 23:40:00,
2013-01-30 18:41:00,57.0,54.4,29.37,SW,225,8.0,16.0,91,0.00,,OVC060,0.00,VWS V14.00,2013-01-30 23:41:00,
2013-01-30 18:44:00,57.0,54.4,29.36,SW,225,9.0,16.0,91,0.00,,OVC060,0.00,VWS V14.00,2013-01-30 23:44:00,
2013-01-30 18:45:00,57.0,54.4,29.36,South,180,10.0,16.0,91,0.00,,OVC060,0.00,VWS V14.00,2013-01-30 23:45:00,
2013-01-30 18:46:00,57.0,54.4,29.36,SW,225,10.0,16.0,91,0.00,,OVC060,0.00,VWS V14.00,2013-01-30 23:46:00,
2013-01-30 18:47:00,57.0,54.4,29.36,SSW,202,6.0,16.0,91,0.00,,OVC060,0.00,VWS V14.00,2013-01-30 23:47:00,
2013-01-30 18:50:00,57.0,54.7,29.36,South,180,7.0,10.0,92,0.00,,OVC060,0.00,VWS V14.00,2013-01-30 23:50:00,
2013-01-30 18:52:00,57.0,54.7,29.36,SW,225,7.0,10.0,92,0.00,,OVC060,0.00,VWS V14.00,2013-01-30 23:52:00,
2013-01-30 18:56:00,56.0,54.0,29.35,SW,225,11.0,17.0,93,0.00,,OVC060,0.00,VWS V14.00,2013-01-30 23:56:00,
2013-01-30 18:57:00,56.0,54.3,29.35,SW,225,7.0,17.0,94,0.00,,OVC060,0.00,VWS V14.00,2013-01-30 23:57:00,
2013-01-30 18:58:00,56.0,54.3,29.35,SW,225,8.0,17.0,94,0.00,,OVC060,0.00,VWS V14.00,2013-01-30 23:58:00,
2013-01-30 19:01:00,56.0,54.3,29.35,SW,225,11.0,15.0,94,0.00,, +RA,0.00,VWS V14.00,2013-01-31 00:01:00,
2013-01-30 19:02:00,54.0,51.7,29.35,WSW,247,7.0,19.0,92,0.00,, +RA,0.00,VWS V14.00,2013-01-31 00:02:00,
2013-01-30 19:03:00,54.0,52.3,29.36,SW,225,8.0,10.0,94,0.00,, +RA,0.00,VWS V14.00,2013-01-31 00:03:00,
2013-01-30 19:04:00,54.0,52.3,29.36,SW,225,11.0,11.0,94,0.00,, +RA,0.00,VWS V14.00,2013-01-31 00:04:00,
2013-01-30 19:06:00,53.0,52.5,29.36,SW,225,9.0,15.0,98,0.00,, +RA,0.00,VWS V14.00,2013-01-31 00:06:00,
2013-01-30 19:08:00,53.0,53.0,29.36,SW,225,8.0,11.0,100,0.00,, +RA,0.00,VWS V14.00,2013-01-31 00:08:00,
2013-01-30 19:09:00,52.0,52.0,29.36,WSW,247,11.0,13.0,100,0.00,, +RA,0.00,VWS V14.00,2013-01-31 00:09:00,
2013-01-30 19:10:00,52.0,52.0,29.36,WSW,247,14.0,14.0,100,0.00,, +RA,0.00,VWS V14.00,2013-01-31 00:10:00,
2013-01-30 19:11:00,51.0,51.0,29.36,WSW,247,10.0,15.0,100,0.00,, +RA,0.00,VWS V14.00,2013-01-31 00:11:00,
2013-01-30 19:14:00,52.0,52.0,29.34,SW,225,13.0,17.0,100,0.00,, +RA,0.00,VWS V14.00,2013-01-31 00:14:00,
2013-01-30 19:15:00,52.0,52.0,29.34,SW,225,11.0,17.0,100,0.00,, +RA,0.00,VWS V14.00,2013-01-31 00:15:00,
2013-01-30 19:16:00,53.0,53.0,29.34,SW,225,11.0,17.0,100,0.00,, +RA,0.00,VWS V14.00,2013-01-31 00:16:00,
2013-01-30 19:18:00,53.0,53.0,29.34,WSW,247,12.0,17.0,100,0.00,, +RA,0.00,VWS V14.00,2013-01-31 00:18:00,
2013-01-30 19:19:00,53.0,53.0,29.34,SW,225,10.0,11.0,100,0.00,, +RA,0.00,VWS V14.00,2013-01-31 00:19:00,
2013-01-30 19:21:00,53.0,53.0,29.34,SW,225,10.0,12.0,100,0.00,,RA,0.00,VWS V14.00,2013-01-31 00:21:00,
2013-01-30 19:22:00,53.0,53.0,29.34,SW,225,13.0,16.0,100,0.00,,RA,0.00,VWS V14.00,2013-01-31 00:22:00,
2013-01-30 19:23:00,53.0,53.0,29.34,WSW,247,10.0,16.0,100,0.00,,RA,0.00,VWS V14.00,2013-01-31 00:23:00,
2013-01-30 19:24:00,53.0,53.0,29.33,SSW,202,12.0,16.0,100,0.00,,RA,0.00,VWS V14.00,2013-01-31 00:24:00,
2013-01-30 19:28:00,54.0,54.0,29.33,SW,225,11.0,18.0,100,0.00,,RA,0.00,VWS V14.00,2013-01-31 00:28:00,
2013-01-30 19:30:00,53.0,53.0,29.33,SW,225,13.0,13.0,100,0.00,,RA,0.00,VWS V14.00,2013-01-31 00:30:00,
2013-01-30 19:33:00,54.0,54.0,29.34,SSW,202,7.0,8.0,100,0.00,,RA,0.00,VWS V14.00,2013-01-31 00:33:00,
2013-01-30 19:34:00,54.0,54.0,29.34,WSW,247,10.0,13.0,100,0.00,,RA,0.00,VWS V14.00,2013-01-31 00:34:00,
2013-01-30 19:35:00,53.0,53.0,29.34,SSW,202,6.0,13.0,100,0.00,,RA,0.00,VWS V14.00,2013-01-31 00:35:00,
2013-01-30 19:36:00,54.0,54.0,29.34,SW,225,7.0,13.0,100,0.00,,RA,0.00,VWS V14.00,2013-01-31 00:36:00,
2013-01-30 19:38:00,53.0,53.0,29.34,SW,225,8.0,8.0,100,0.00,,RA,0.00,VWS V14.00,2013-01-31 00:38:00,
2013-01-30 19:39:00,53.0,53.0,29.34,SW,225,5.0,10.0,100,0.00,,RA,0.00,VWS V14.00,2013-01-31 00:39:00,
2013-01-30 19:41:00,54.0,54.0,29.34,SW,225,8.0,10.0,100,0.00,,RA,0.00,VWS V14.00,2013-01-31 00:41:00,
2013-01-30 19:44:00,54.0,54.0,29.33,SW,225,8.0,10.0,100,0.00,,RA,0.00,VWS V14.00,2013-01-31 00:44:00,
2013-01-30 19:45:00,54.0,54.0,29.33,SSW,202,6.0,10.0,100,0.00,,RA,0.00,VWS V14.00,2013-01-31 00:45:00,
2013-01-30 19:46:00,54.0,54.0,29.33,SW,225,7.0,13.0,100,0.00,,RA,0.00,VWS V14.00,2013-01-31 00:46:00,
2013-01-30 19:48:00,54.0,54.0,29.33,SW,225,10.0,13.0,100,0.00,,RA,0.00,VWS V14.00,2013-01-31 00:48:00,
2013-01-30 19:50:00,54.0,54.0,29.33,SW,225,8.0,14.0,100,0.00,,RA,0.00,VWS V14.00,2013-01-31 00:50:00,
2013-01-30 19:53:00,54.0,54.0,29.33,SW,225,11.0,11.0,100,0.00,,RA,0.00,VWS V14.00,2013-01-31 00:53:00,
2013-01-30 19:55:00,54.0,54.0,29.33,SW,225,11.0,18.0,100,0.00,,RA,0.00,VWS V14.00,2013-01-31 00:55:00,
2013-01-30 19:57:00,54.0,54.0,29.33,SSW,202,8.0,18.0,100,0.00,,RA,0.00,VWS V14.00,2013-01-31 00:57:00,
2013-01-30 20:00:00,54.0,54.0,29.33,SW,225,8.0,13.0,100,0.00,,RA,0.00,VWS V14.00,2013-01-31 01:00:00,
2013-01-30 20:01:00,54.0,54.0,29.33,SW,225,9.0,13.0,100,0.00,,-RA,0.00,VWS V14.00,2013-01-31 01:01:00,
2013-01-30 20:02:00,54.0,54.0,29.33,South,180,11.0,13.0,100,0.00,,-RA,0.00,VWS V14.00,2013-01-31 01:02:00,
2013-01-30 20:04:00,54.0,54.0,29.34,SW,225,8.0,13.0,100,0.00,,-RA,0.00,VWS V14.00,2013-01-31 01:04:00,
2013-01-30 20:07:00,54.0,54.0,29.34,SW,225,10.0,20.0,100,0.00,,-RA,0.00,VWS V14.00,2013-01-31 01:07:00,
2013-01-30 20:08:00,54.0,54.0,29.34,South,180,11.0,20.0,100,0.00,,-RA,0.00,VWS V14.00,2013-01-31 01:08:00,
2013-01-30 20:09:00,54.0,54.0,29.34,SW,225,15.0,18.0,100,0.00,,-RA,0.00,VWS V14.00,2013-01-31 01:09:00,
2013-01-30 20:12:00,54.0,54.0,29.34,SW,225,16.0,21.0,100,0.00,,-RA,0.00,VWS V14.00,2013-01-31 01:12:00,
2013-01-30 20:13:00,54.0,54.0,29.34,SW,225,11.0,21.0,100,0.00,,-RA,0.00,VWS V14.00,2013-01-31 01:13:00,
2013-01-30 20:14:00,54.0,54.0,29.32,SSW,202,11.0,18.0,100,0.00,,-RA,0.00,VWS V14.00,2013-01-31 01:14:00,
2013-01-30 20:15:00,54.0,54.0,29.32,SW,225,15.0,18.0,100,0.00,,-RA,0.00,VWS V14.00,2013-01-31 01:15:00,
2013-01-30 20:18:00,54.0,54.0,29.32,SSW,202,12.0,18.0,100,0.00,,-RA,0.00,VWS V14.00,2013-01-31 01:18:00,
2013-01-30 20:20:00,54.0,54.0,29.32,SW,225,10.0,22.0,100,0.00,,-RA,0.00,VWS V14.00,2013-01-31 01:20:00,
2013-01-30 20:23:00,54.0,54.0,29.31,SW,225,9.0,11.0,100,0.00,,-RA,0.00,VWS V14.00,2013-01-31 01:23:00,
2013-01-30 20:26:00,54.0,54.0,29.31,SW,225,9.0,17.0,100,0.00,,-RA,0.00,VWS V14.00,2013-01-31 01:26:00,
2013-01-30 20:28:00,54.0,54.0,29.31,SW,225,13.0,16.0,100,0.00,,-RA,0.00,VWS V14.00,2013-01-31 01:28:00,
2013-01-30 20:29:00,54.0,54.0,29.31,SSW,202,8.0,16.0,100,0.00,,-RA,0.00,VWS V14.00,2013-01-31 01:29:00,
2013-01-30 20:31:00,54.0,54.0,29.31,SW,225,13.0,16.0,100,0.00,,-RA,0.00,VWS V14.00,2013-01-31 01:31:00,
2013-01-30 20:34:00,54.0,54.0,29.30,SW,225,15.0,18.0,100,0.00,,-RA,0.00,VWS V14.00,2013-01-31 01:34:00,
2013-01-30 20:36:00,54.0,54.0,29.30,SSW,202,13.0,18.0,100,0.00,,-RA,0.00,VWS V14.00,2013-01-31 01:36:00,
2013-01-30 20:38:00,54.0,54.0,29.30,WSW,247,10.0,10.0,100,0.00,,-RA,0.00,VWS V14.00,2013-01-31 01:38:00,
2013-01-30 20:39:00,54.0,53.7,29.30,SW,225,13.0,13.0,99,0.00,,-RA,0.00,VWS V14.00,2013-01-31 01:39:00,
2013-01-30 20:42:00,54.0,53.7,29.30,SW,225,10.0,16.0,99,0.00,,-RA,0.00,VWS V14.00,2013-01-31 01:42:00,
2013-01-30 20:44:00,54.0,53.5,29.30,SW,225,11.0,14.0,98,0.00,,-RA,0.00,VWS V14.00,2013-01-31 01:44:00,
2013-01-30 20:45:00,54.0,53.5,29.30,WSW,247,12.0,16.0,98,0.00,,-RA,0.00,VWS V14.00,2013-01-31 01:45:00,
2013-01-30 20:47:00,54.0,53.2,29.30,WSW,247,13.0,19.0,97,0.00,,-RA,0.00,VWS V14.00,2013-01-31 01:47:00,
2013-01-30 20:48:00,54.0,53.2,29.30,SW,225,17.0,19.0,97,0.00,,-RA,0.00,VWS V14.00,2013-01-31 01:48:00,
2013-01-30 20:49:00,54.0,52.6,29.30,SW,225,21.0,23.0,95,0.00,,-RA,0.00,VWS V14.00,2013-01-31 01:49:00,
2013-01-30 20:50:00,54.0,52.6,29.30,SSW,202,13.0,23.0,95,0.00,,-RA,0.00,VWS V14.00,2013-01-31 01:50:00,
2013-01-30 20:53:00,54.0,52.3,29.30,SSW,202,10.0,23.0,94,0.00,,-RA,0.00,VWS V14.00,2013-01-31 01:53:00,
2013-01-30 20:55:00,54.0,51.7,29.29,SW,225,12.0,21.0,92,0.00,,-RA,0.00,VWS V14.00,2013-01-31 01:55:00,
2013-01-30 20:56:00,54.0,51.7,29.29,SW,225,16.0,21.0,92,0.00,,-RA,0.00,VWS V14.00,2013-01-31 01:56:00,
2013-01-30 20:58:00,54.0,51.1,29.29,South,180,13.0,18.0,90,0.00,,-RA,0.00,VWS V14.00,2013-01-31 01:58:00,
2013-01-30 20:59:00,55.0,52.1,29.29,SW,225,16.0,20.0,90,0.00,,-RA,0.00,VWS V14.00,2013-01-31 01:59:00,
2013-01-30 21:00:00,55.0,51.8,29.29,SSW,202,18.0,21.0,89,0.00,,-RA,0.00,VWS V14.00,2013-01-31 02:00:00,
2013-01-30 21:02:00,55.0,51.5,29.29,SW,225,11.0,23.0,88,0.00,,SCT075,0.00,VWS V14.00,2013-01-31 02:02:00,
2013-01-30 21:03:00,55.0,51.8,29.29,WSW,247,14.0,14.0,89,0.00,,SCT075,0.00,VWS V14.00,2013-01-31 02:03:00,
2013-01-30 21:05:00,55.0,51.2,29.29,SW,225,16.0,20.0,87,0.00,,SCT075,0.00,VWS V14.00,2013-01-31 02:05:00,
2013-01-30 21:07:00,55.0,50.9,29.29,SW,225,13.0,21.0,86,0.00,,SCT075,0.00,VWS V14.00,2013-01-31 02:07:00,
2013-01-30 21:09:00,55.0,50.9,29.29,SW,225,15.0,20.0,86,0.00,,SCT075,0.00,VWS V14.00,2013-01-31 02:09:00,
2013-01-30 21:11:00,55.0,50.9,29.29,SSW,202,14.0,22.0,86,0.00,,SCT075,0.00,VWS V14.00,2013-01-31 02:11:00,
2013-01-30 21:13:00,55.0,49.6,29.29,SW,225,13.0,26.0,82,0.00,,SCT075,0.00,VWS V14.00,2013-01-31 02:13:00,
2013-01-30 21:14:00,55.0,49.9,29.29,WSW,247,20.0,26.0,83,0.00,,SCT075,0.00,VWS V14.00,2013-01-31 02:14:00,
2013-01-30 21:16:00,55.0,49.3,29.29,SW,225,22.0,26.0,81,0.00,,SCT075,0.00,VWS V14.00,2013-01-31 02:16:00,
2013-01-30 21:18:00,55.0,49.6,29.29,SW,225,11.0,26.0,82,0.00,,SCT075,0.00,VWS V14.00,2013-01-31 02:18:00,
2013-01-30 21:19:00,55.0,49.3,29.29,WSW,247,18.0,21.0,81,0.00,,SCT075,0.00,VWS V14.00,2013-01-31 02:19:00,
2013-01-30 21:20:00,55.0,49.6,29.29,SW,225,10.0,21.0,82,0.00,,SCT075,0.00,VWS V14.00,2013-01-31 02:20:00,
2013-01-30 21:22:00,54.0,48.3,29.29,SW,225,9.0,21.0,81,0.00,,SCT075,0.00,VWS V14.00,2013-01-31 02:22:00,
2013-01-30 21:24:00,54.0,48.3,29.31,SW,225,8.0,16.0,81,0.00,,SCT075,0.00,VWS V14.00,2013-01-31 02:24:00,
2013-01-30 21:26:00,55.0,49.0,29.31,SW,225,12.0,20.0,80,0.00,,SCT075,0.00,VWS V14.00,2013-01-31 02:26:00,
2013-01-30 21:28:00,54.0,48.3,29.31,WSW,247,9.0,13.0,81,0.00,,SCT075,0.00,VWS V14.00,2013-01-31 02:28:00,
2013-01-30 21:30:00,54.0,42.4,29.31,West,270,27.0,38.0,78,0.00,,SCT075,0.00,VWS V14.00,2013-01-31 02:30:00,
2013-01-30 21:32:00,46.0,40.8,29.31,West,270,18.0,38.0,82,0.00,,SCT075,0.00,VWS V14.00,2013-01-31 02:32:00,
2013-01-30 21:34:00,44.0,39.5,29.34,WSW,247,17.0,30.0,84,0.00,,SCT075,0.00,VWS V14.00,2013-01-31 02:34:00,
2013-01-30 21:35:00,43.0,39.4,29.34,West,270,27.0,31.0,87,0.00,,SCT075,0.00,VWS V14.00,2013-01-31 02:35:00,
2013-01-30 21:36:00,43.0,39.4,29.34,West,270,25.0,31.0,87,0.00,,SCT075,0.00,VWS V14.00,2013-01-31 02:36:00,
2013-01-30 21:38:00,43.0,40.0,29.34,West,270,21.0,36.0,89,0.00,,SCT075,0.00,VWS V14.00,2013-01-31 02:38:00,
2013-01-30 21:39:00,42.0,38.7,29.34,West,270,22.0,31.0,88,0.00,,SCT075,0.00,VWS V14.00,2013-01-31 02:39:00,
2013-01-30 21:41:00,42.0,39.3,29.34,West,270,19.0,31.0,90,0.00,,SCT075,0.00,VWS V14.00,2013-01-31 02:41:00,
2013-01-30 21:42:00,41.0,38.6,29.34,West,270,27.0,31.0,91,0.00,,SCT075,0.00,VWS V14.00,2013-01-31 02:42:00,
2013-01-30 21:43:00,41.0,38.6,29.34,WSW,247,26.0,31.0,91,0.00,,SCT075,0.00,VWS V14.00,2013-01-31 02:43:00,
2013-01-30 21:45:00,41.0,38.9,29.33,West,270,22.0,28.0,92,0.00,,SCT075,0.00,VWS V14.00,2013-01-31 02:45:00,
2013-01-30 21:46:00,41.0,38.9,29.33,WSW,247,24.0,28.0,92,0.00,,SCT075,0.00,VWS V14.00,2013-01-31 02:46:00,
2013-01-30 21:47:00,40.0,38.1,29.33,WSW,247,26.0,29.0,93,0.00,,SCT075,0.00,VWS V14.00,2013-01-31 02:47:00,
2013-01-30 21:48:00,40.0,38.1,29.33,West,270,23.0,27.0,93,0.00,,SCT075,0.00,VWS V14.00,2013-01-31 02:48:00,
2013-01-30 21:50:00,40.0,38.1,29.33,WSW,247,22.0,28.0,93,0.00,,SCT075,0.00,VWS V14.00,2013-01-31 02:50:00,
2013-01-30 21:51:00,40.0,38.1,29.33,WSW,247,19.0,28.0,93,0.00,,SCT075,0.00,VWS V14.00,2013-01-31 02:51:00,
2013-01-30 21:53:00,40.0,38.4,29.34,WNW,292,20.0,24.0,94,0.00,,SCT075,0.00,VWS V14.00,2013-01-31 02:53:00,
2013-01-30 21:54:00,39.0,37.4,29.34,West,270,18.0,32.0,94,0.00,,SCT075,0.00,VWS V14.00,2013-01-31 02:54:00,
2013-01-30 21:56:00,39.0,37.4,29.34,West,270,26.0,32.0,94,0.00,,SCT075,0.00,VWS V14.00,2013-01-31 02:56:00,
2013-01-30 21:57:00,39.0,37.4,29.34,WSW,247,26.0,35.0,94,0.00,,SCT075,0.00,VWS V14.00,2013-01-31 02:57:00,
2013-01-30 21:59:00,39.0,37.4,29.34,West,270,27.0,34.0,94,0.00,,SCT075,0.00,VWS V14.00,2013-01-31 02:59:00,
2013-01-30 22:00:00,39.0,37.7,29.34,West,270,20.0,34.0,95,0.00,,SCT075,0.00,VWS V14.00,2013-01-31 03:00:00,
2013-01-30 22:02:00,38.0,37.5,29.34,West,270,28.0,34.0,98,0.00,,-RA,0.00,VWS V14.00,2013-01-31 03:02:00,
2013-01-30 22:03:00,38.0,37.5,29.34,WSW,247,18.0,34.0,98,0.00,,-RA,0.00,VWS V14.00,2013-01-31 03:03:00,
2013-01-30 22:05:00,38.0,38.0,29.32,West,270,17.0,31.0,100,0.00,,-RA,0.00,VWS V14.00,2013-01-31 03:05:00,
2013-01-30 22:06:00,37.0,37.0,29.32,WSW,247,24.0,31.0,100,0.00,,-RA,0.00,VWS V14.00,2013-01-31 03:06:00,
2013-01-30 22:07:00,37.0,37.0,29.32,West,270,24.0,31.0,100,0.00,,-RA,0.00,VWS V14.00,2013-01-31 03:07:00,
2013-01-30 22:08:00,37.0,37.0,29.32,WSW,247,27.0,27.0,100,0.00,,-RA,0.00,VWS V14.00,2013-01-31 03:08:00,
2013-01-30 22:11:00,37.0,37.0,29.32,West,270,25.0,33.0,100,0.00,,-RA,0.00,VWS V14.00,2013-01-31 03:11:00,
2013-01-30 22:13:00,37.0,37.0,29.33,WSW,247,29.0,29.0,100,0.00,,-RA,0.00,VWS V14.00,2013-01-31 03:13:00,
2013-01-30 22:14:00,37.0,37.0,29.33,West,270,17.0,29.0,100,0.00,,-RA,0.00,VWS V14.00,2013-01-31 03:14:00,
2013-01-30 22:16:00,37.0,37.0,29.33,WSW,247,17.0,29.0,100,0.00,,-RA,0.00,VWS V14.00,2013-01-31 03:16:00,
2013-01-30 22:17:00,37.0,37.0,29.33,West,270,23.0,29.0,100,0.00,,-RA,0.00,VWS V14.00,2013-01-31 03:17:00,
2013-01-30 22:19:00,38.0,38.0,29.33,West,270,18.0,24.0,100,0.00,,-RA,0.00,VWS V14.00,2013-01-31 03:19:00,
2013-01-30 22:21:00,38.0,38.0,29.33,West,270,18.0,29.0,100,0.00,,RA,0.00,VWS V14.00,2013-01-31 03:21:00,
2013-01-30 22:23:00,38.0,38.0,29.33,West,270,16.0,29.0,100,0.00,,RA,0.00,VWS V14.00,2013-01-31 03:23:00,
2013-01-30 22:25:00,38.0,38.0,29.32,WSW,247,14.0,22.0,100,0.00,,RA,0.00,VWS V14.00,2013-01-31 03:25:00,
2013-01-30 22:26:00,37.0,37.0,29.32,West,270,23.0,24.0,100,0.00,,RA,0.00,VWS V14.00,2013-01-31 03:26:00,
2013-01-30 22:28:00,37.0,37.0,29.32,West,270,23.0,28.0,100,0.00,,RA,0.00,VWS V14.00,2013-01-31 03:28:00,
2013-01-30 22:29:00,37.0,37.0,29.32,WSW,247,25.0,31.0,100,0.00,,RA,0.00,VWS V14.00,2013-01-31 03:29:00,
2013-01-30 22:32:00,38.0,37.7,29.32,West,270,23.0,31.0,99,0.00,,RA,0.00,VWS V14.00,2013-01-31 03:32:00,
2013-01-30 22:34:00,38.0,37.5,29.32,WSW,247,18.0,26.0,98,0.00,,RA,0.00,VWS V14.00,2013-01-31 03:34:00,
2013-01-30 22:35:00,38.0,37.5,29.32,WSW,247,23.0,33.0,98,0.00,,RA,0.00,VWS V14.00,2013-01-31 03:35:00,
2013-01-30 22:37:00,38.0,37.2,29.32,West,270,23.0,33.0,97,0.00,,RA,0.00,VWS V14.00,2013-01-31 03:37:00,
2013-01-30 22:40:00,38.0,37.0,29.32,West,270,26.0,36.0,96,0.00,,RA,0.00,VWS V14.00,2013-01-31 03:40:00,
2013-01-30 22:41:00,37.0,36.2,29.32,West,270,23.0,36.0,97,0.00,,RA,0.00,VWS V14.00,2013-01-31 03:41:00,
2013-01-30 22:42:00,37.0,36.5,29.32,West,270,24.0,36.0,98,0.00,,RA,0.00,VWS V14.00,2013-01-31 03:42:00,
2013-01-30 22:43:00,37.0,36.5,29.32,West,270,18.0,29.0,98,0.00,,RA,0.00,VWS V14.00,2013-01-31 03:43:00,
2013-01-30 22:45:00,37.0,36.8,29.32,WSW,247,22.0,30.0,99,0.00,,RA,0.00,VWS V14.00,2013-01-31 03:45:00,
2013-01-30 22:47:00,37.0,36.8,29.32,West,270,28.0,30.0,99,0.00,,RA,0.00,VWS V14.00,2013-01-31 03:47:00,
2013-01-30 22:48:00,37.0,37.0,29.32,West,270,23.0,24.0,100,0.00,,RA,0.00,VWS V14.00,2013-01-31 03:48:00,
2013-01-30 22:49:00,37.0,37.0,29.32,WSW,247,24.0,26.0,100,0.00,,RA,0.00,VWS V14.00,2013-01-31 03:49:00,
2013-01-30 22:51:00,37.0,36.5,29.32,West,270,30.0,36.0,98,0.00,,RA,0.00,VWS V14.00,2013-01-31 03:51:00,
2013-01-30 22:52:00,37.0,36.5,29.32,West,270,21.0,36.0,98,0.00,,RA,0.00,VWS V14.00,2013-01-31 03:52:00,
2013-01-30 22:54:00,37.0,36.2,29.33,West,270,21.0,25.0,97,0.00,,RA,0.00,VWS V14.00,2013-01-31 03:54:00,
2013-01-30 22:57:00,37.0,36.0,29.33,WSW,247,15.0,26.0,96,0.00,,RA,0.00,VWS V14.00,2013-01-31 03:57:00,
2013-01-30 22:59:00,37.0,36.0,29.33,WSW,247,28.0,28.0,96,0.00,,RA,0.00,VWS V14.00,2013-01-31 03:59:00,
2013-01-30 23:00:00,37.0,35.7,29.33,WSW,247,19.0,28.0,95,0.00,,RA,0.00,VWS V14.00,2013-01-31 04:00:00,
2013-01-30 23:03:00,37.0,36.0,29.34,WSW,247,15.0,19.0,96,0.00,,-RA,0.00,VWS V14.00,2013-01-31 04:03:00,
2013-01-30 23:04:00,37.0,36.0,29.34,WSW,247,10.0,22.0,96,0.00,,-RA,0.00,VWS V14.00,2013-01-31 04:04:00,
2013-01-30 23:05:00,37.0,36.0,29.34,West,270,20.0,22.0,96,0.00,,-RA,0.00,VWS V14.00,2013-01-31 04:05:00,
2013-01-30 23:09:00,37.0,36.8,29.34,SW,225,11.0,18.0,99,0.00,,-RA,0.00,VWS V14.00,2013-01-31 04:09:00,
2013-01-30 23:10:00,37.0,36.8,29.34,WSW,247,15.0,21.0,99,0.00,,-RA,0.00,VWS V14.00,2013-01-31 04:10:00,
2013-01-30 23:11:00,37.0,36.8,29.34,WSW,247,16.0,21.0,99,0.00,,-RA,0.00,VWS V14.00,2013-01-31 04:11:00,
2013-01-30 23:15:00,37.0,36.5,29.32,WSW,247,16.0,23.0,98,0.00,,-RA,0.00,VWS V14.00,2013-01-31 04:15:00,
2013-01-30 23:16:00,37.0,36.8,29.32,SW,225,11.0,23.0,99,0.00,,-RA,0.00,VWS V14.00,2013-01-31 04:16:00,
2013-01-30 23:17:00,37.0,36.5,29.32,WSW,247,15.0,23.0,98,0.00,,-RA,0.00,VWS V14.00,2013-01-31 04:17:00,
2013-01-30 23:18:00,37.0,36.5,29.32,West,270,14.0,23.0,98,0.00,,-RA,0.00,VWS V14.00,2013-01-31 04:18:00,
2013-01-30 23:21:00,37.0,36.0,29.32,SW,225,16.0,22.0,96,0.00,,OVC065,0.00,VWS V14.00,2013-01-31 04:21:00,
2013-01-30 23:22:00,37.0,36.0,29.32,WSW,247,15.0,22.0,96,0.00,,OVC065,0.00,VWS V14.00,2013-01-31 04:22:00,
2013-01-30 23:23:00,37.0,36.0,29.32,SW,225,22.0,26.0,96,0.00,,OVC065,0.00,VWS V14.00,2013-01-31 04:23:00,
2013-01-30 23:28:00,37.0,36.0,29.32,WSW,247,18.0,26.0,96,0.00,,OVC065,0.00,VWS V14.00,2013-01-31 04:28:00,
2013-01-30 23:29:00,37.0,36.0,29.32,WSW,247,19.0,26.0,96,0.00,,OVC065,0.00,VWS V14.00,2013-01-31 04:29:00,
2013-01-30 23:30:00,37.0,35.7,29.32,WSW,247,20.0,26.0,95,0.00,,OVC065,0.00,VWS V14.00,2013-01-31 04:30:00,
2013-01-30 23:33:00,37.0,36.0,29.32,WSW,247,20.0,26.0,96,0.00,,OVC065,0.00,VWS V14.00,2013-01-31 04:33:00,
2013-01-30 23:34:00,37.0,36.0,29.33,WSW,247,21.0,21.0,96,0.00,,OVC065,0.00,VWS V14.00,2013-01-31 04:34:00,
2013-01-30 23:35:00,37.0,36.0,29.33,WSW,247,18.0,21.0,96,0.00,,OVC065,0.00,VWS V14.00,2013-01-31 04:35:00,
2013-01-30 23:38:00,37.0,35.7,29.33,WSW,247,23.0,29.0,95,0.00,,OVC065,0.00,VWS V14.00,2013-01-31 04:38:00,
2013-01-30 23:39:00,37.0,35.4,29.33,WSW,247,21.0,28.0,94,0.00,,OVC065,0.00,VWS V14.00,2013-01-31 04:39:00,
2013-01-30 23:40:00,37.0,35.4,29.33,WSW,247,21.0,28.0,94,0.00,,OVC065,0.00,VWS V14.00,2013-01-31 04:40:00,
2013-01-30 23:41:00,37.0,35.7,29.33,WSW,247,18.0,28.0,95,0.00,,OVC065,0.00,VWS V14.00,2013-01-31 04:41:00,
2013-01-30 23:43:00,37.0,35.7,29.34,SW,225,18.0,23.0,95,0.00,,OVC065,0.00,VWS V14.00,2013-01-31 04:43:00,
2013-01-30 23:45:00,36.0,34.7,29.34,West,270,13.0,23.0,95,0.00,,OVC065,0.00,VWS V14.00,2013-01-31 04:45:00,
2013-01-30 23:46:00,36.0,34.7,29.34,West,270,20.0,23.0,95,0.00,,OVC065,0.00,VWS V14.00,2013-01-31 04:46:00,
2013-01-30 23:49:00,36.0,35.0,29.34,WSW,247,14.0,18.0,96,0.00,,OVC065,0.00,VWS V14.00,2013-01-31 04:49:00,
2013-01-30 23:51:00,36.0,35.0,29.34,West,270,16.0,19.0,96,0.00,,OVC065,0.00,VWS V14.00,2013-01-31 04:51:00,
2013-01-30 23:52:00,36.0,35.0,29.34,WSW,247,16.0,19.0,96,0.00,,OVC065,0.00,VWS V14.00,2013-01-31 04:52:00,
2013-01-30 23:54:00,36.0,35.2,29.35,West,270,13.0,21.0,97,0.00,,OVC065,0.00,VWS V14.00,2013-01-31 04:54:00,
2013-01-30 23:56:00,36.0,35.2,29.35,WSW,247,18.0,23.0,97,0.00,,OVC065,0.00,VWS V14.00,2013-01-31 04:56:00,
2013-01-30 23:58:00,36.0,35.2,29.35,West,270,15.0,20.0,97,0.00,,OVC065,0.00,VWS V14.00,2013-01-31 04:58:00,